GFSNE_sfc_temp_000.txt.gz
Temp
49 49 48 47 44 44 44 44 39 38 43 52 55 61 61 61 59 60 60 53 50 50 48 50 50 51 51 52 52 52 54 56 57 56 57 57 58 59
47 48 50 52 52 51 50 49 49 46 43 52 55 57 59 60 58 58 58 52 48 48 49 48 49 50 50 50 50 50 50 52 54 54 55 55 56 57
50 50 50 51 51 52 52 52 50 50 46 50 54 56 55 55 56 57 57 57 58 47 46 48 47 47 47 48 48 48 48 48 50 51 52 53 54 56
49 49 48 51 49 49 50 48 48 50 47 45 50 52 52 55 55 54 56 58 58 53 46 46 46 46 46 46 46 45 45 45 45 47 47 48 50 51
48 47 47 47 46 47 47 46 47 48 48 46 46 50 51 53 52 53 53 54 56 51 46 44 45 45 45 45 45 45 45 44 43 44 44 44 45 46
46 45 45 44 44 44 44 44 45 45 45 45 45 46 48 50 50 48 47 51 51 55 51 47 46 46 45 45 45 45 44 44 44 43 43 42 42 43
44 45 44 43 39 39 40 41 42 42 43 43 43 44 44 45 44 47 45 47 48 50 50 51 52 53 52 46 48 45 45 44 44 44 43 43 42 42
43 44 44 41 41 38 37 36 37 37 39 39 38 37 40 41 43 41 40 39 37 48 46 45 48 48 52 53 48 45 44 43 43 43 42 41 40 41
41 41 41 43 39 41 38 36 35 35 33 34 32 34 35 38 39 37 38 37 38 44 44 40 44 41 45 50 44 43 42 42 42 42 42 41 40 40
39 40 39 40 40 37 36 35 35 37 38 38 37 37 39 40 40 41 40 39 39 42 43 34 39 39 42 43 43 43 42 41 41 41 40 40 39 38
38 39 37 34 34 34 33 31 34 36 38 37 37 36 36 36 37 38 34 34 32 37 42 39 38 38 40 40 43 42 41 40 40 40 40 39 38 38
33 34 33 35 33 33 31 31 30 34 36 37 38 36 36 38 35 37 37 32 33 33 40 37 38 38 33 42 43 43 43 39 39 40 40 39 39 44
31 33 36 31 29 29 30 30 30 32 32 33 34 35 37 38 39 39 39 36 34 34 41 41 37 38 37 37 39 42 41 41 42 42 39 39 38 39
30 32 32 29 29 28 29 29 28 29 30 30 31 32 33 36 39 40 40 40 40 39 42 41 36 39 37 35 35 42 42 42 39 37 40 40 37 36
31 28 27 27 28 29 27 27 27 30 29 29 30 31 34 37 38 37 38 40 40 39 39 40 38 39 38 35 36 37 37 39 38 37 37 40 41 43
29 30 27 26 27 27 29 29 29 29 28 28 30 32 34 34 34 36 34 35 34 35 36 37 36 36 34 36 37 37 39 35 37 38 36 37 40 41
27 27 26 25 26 28 28 28 29 30 28 29 30 30 32 34 35 36 35 35 32 33 34 36 35 35 36 35 32 36 37 38 40 39 36 38 39 40
25 23 21 22 24 26 26 26 27 27 28 28 29 29 30 32 33 33 33 34 33 34 35 36 35 33 33 33 34 36 38 37 40 38 39 35 37 42
22 21 20 21 23 25 25 25 25 26 27 27 28 28 29 31 32 32 32 31 32 34 37 37 36 33 31 29 33 29 33 37 35 36 35 34 34 40
20 20 19 21 23 24 24 23 24 25 26 26 27 28 28 28 30 30 32 30 32 35 36 35 34 34 32 30 31 29 30 30 32 33 34 35 32 28
19 20 21 22 22 24 23 23 24 24 25 25 26 26 27 28 28 29 30 29 30 32 32 32 31 28 33 34 29 29 29 30 30 31 33 32 32 33
20 21 21 22 22 22 23 24 25 24 24 25 25 26 26 27 27 28 28 28 28 29 30 32 34 34 32 31 30 27 29 29 28 28 28 27 29 29
20 21 21 21 22 22 23 23 24 24 24 24 25 26 27 26 28 28 28 29 29 28 29 30 32 34 31 31 30 29 26 27 31 30 28 27 28 28

GFSNE_sfc_temp_003.txt.gz
Temp
48 48 48 48 46 48 47 45 39 35 42 49 49 56 56 59 59 59 60 51 50 51 49 51 52 52 52 53 53 53 54 55 57 57 57 58 58 58
49 50 49 50 51 50 49 48 46 42 38 49 51 55 58 60 59 59 59 52 49 48 49 51 51 51 51 51 51 52 52 52 54 55 56 56 56 57
48 49 49 50 50 51 51 50 50 50 45 49 54 56 56 56 57 59 58 57 57 47 47 47 48 48 48 48 48 49 49 50 51 52 53 54 55 56
47 47 47 50 49 50 50 48 49 50 47 45 50 51 52 55 56 55 57 59 58 53 47 47 47 47 46 46 46 47 47 47 47 47 48 49 50 52
47 47 47 47 46 47 47 47 48 49 48 47 46 50 52 53 53 54 54 55 57 52 46 45 45 46 46 45 45 45 46 45 45 44 44 44 45 47
48 47 47 46 45 44 44 45 45 45 45 45 45 46 48 50 51 49 48 52 52 56 52 49 48 46 46 45 45 45 45 46 45 44 43 42 42 43
45 47 47 46 41 41 42 41 40 40 41 42 42 44 46 46 46 49 47 48 50 52 51 52 53 52 51 45 48 45 45 45 45 45 44 43 42 42
41 43 45 43 43 39 38 38 38 37 36 38 39 39 41 43 45 44 43 41 39 48 46 45 50 48 51 52 47 45 46 45 45 45 45 43 42 40
39 41 41 44 41 42 40 38 37 36 33 35 32 34 36 39 40 39 39 39 38 43 43 40 44 42 47 49 44 43 43 42 43 43 42 42 41 40
38 39 39 39 41 39 37 37 37 37 37 38 37 37 39 40 40 39 38 39 40 42 43 35 41 40 43 45 43 43 42 42 42 41 41 41 40 40
36 37 37 36 36 35 33 32 33 35 39 38 37 37 37 37 37 38 33 32 32 37 42 38 38 38 41 41 42 42 41 41 41 40 40 40 40 39
33 35 34 35 33 33 32 31 29 33 35 35 36 36 35 37 36 37 36 32 32 32 41 37 38 39 34 40 41 42 42 40 39 40 40 40 40 41
30 31 34 28 29 29 30 30 30 31 31 32 33 35 37 38 39 39 39 36 33 34 40 39 34 37 37 36 40 41 40 40 41 41 39 40 40 40
28 31 30 29 29 29 29 30 28 29 30 29 30 31 32 34 38 40 40 39 39 37 40 39 34 36 36 35 35 40 40 40 41 40 40 40 39 38
29 29 29 28 28 29 28 28 28 29 30 29 29 31 33 36 37 37 37 38 38 39 39 39 38 35 34 35 35 37 36 39 40 38 39 38 36 38
27 28 28 27 28 28 29 30 30 30 29 29 30 32 34 34 33 35 34 35 34 35 38 38 38 37 34 36 36 35 37 35 37 37 37 36 37 37
25 27 25 24 25 28 29 29 30 30 29 29 29 30 31 32 33 36 36 35 33 33 34 37 37 36 37 35 33 35 36 35 38 39 36 37 38 37
25 22 21 22 23 25 25 26 28 27 28 29 29 30 29 30 31 33 36 34 33 34 35 37 34 33 33 33 34 34 36 36 38 37 34 34 37 41
22 21 20 21 24 26 25 25 25 27 28 28 28 27 29 29 29 31 33 33 33 35 37 37 35 32 29 28 32 29 32 36 34 35 36 34 35 38
22 21 21 22 24 25 25 24 26 27 27 27 27 28 28 28 29 29 30 31 32 34 34 35 34 32 30 29 30 28 29 30 31 32 33 34 32 30
21 22 23 23 23 24 24 25 25 25 25 26 27 27 28 29 29 29 29 30 31 32 31 31 32 30 33 33 30 29 28 30 29 29 31 32 32 33
21 22 23 23 23 23 23 24 25 25 24 24 25 27 28 29 27 28 29 28 29 29 30 33 34 34 32 30 29 29 30 30 29 29 29 28 27 27
21 22 22 22 23 23 23 23 24 24 24 24 24 26 27 27 29 29 29 29 29 29 30 30 32 34 31 30 29 29 27 29 30 29 28 29 29 29

GFSNE_sfc_temp_006.txt.gz
Temp
42 42 42 42 42 42 41 41 37 33 34 40 43 46 47 48 49 50 52 50 49 48 49 51 52 52 52 53 53 54 55 56 57 58 58 58 58 59
44 43 42 44 44 44 43 41 41 38 34 41 45 48 51 54 51 50 53 50 48 47 47 49 50 51 51 51 51 51 52 53 54 55 56 56 57 58
43 44 44 45 44 44 45 44 42 40 37 42 45 47 47 48 51 51 53 49 47 47 46 47 47 47 48 48 48 49 49 50 51 51 53 55 56 57
43 43 43 47 43 43 44 43 42 42 39 37 40 43 42 44 46 46 52 56 51 49 47 46 46 46 46 46 46 46 46 47 47 48 48 49 52 54
41 40 41 41 38 39 39 39 40 44 40 38 37 39 40 41 43 44 46 46 52 51 45 45 45 46 45 45 45 45 46 45 45 45 45 45 46 47
39 38 39 40 40 39 39 36 38 35 36 35 35 37 37 40 40 39 38 41 41 51 49 47 44 45 45 45 45 45 45 45 45 44 44 42 42 43
36 38 39 40 42 39 40 36 34 32 31 32 32 34 35 36 35 39 38 38 39 41 39 39 41 43 44 44 46 45 45 45 45 45 44 43 42 42
32 34 36 39 39 40 39 39 36 31 31 30 30 29 31 33 35 33 31 30 28 37 35 33 38 37 40 43 45 43 42 42 43 44 44 44 43 41
31 32 34 39 37 37 36 36 36 36 32 31 29 29 29 31 33 31 29 28 28 33 33 26 29 31 36 44 42 43 43 42 42 42 42 42 41 40
30 31 31 32 33 34 33 30 31 33 34 34 32 31 33 34 33 33 32 33 31 32 34 29 27 29 29 33 42 43 42 42 42 42 41 41 40 39
30 31 32 31 34 35 31 28 28 31 37 37 37 37 37 37 36 33 29 29 26 28 31 28 26 26 29 30 32 41 42 41 41 41 41 40 40 39
28 30 32 32 29 30 28 28 27 29 31 31 30 32 35 34 35 33 31 27 27 25 32 31 30 28 26 28 32 34 29 38 40 40 41 40 40 35
26 26 29 30 29 30 30 27 27 29 28 28 28 29 31 32 33 35 34 31 27 27 33 34 29 26 29 27 26 29 31 31 31 34 40 40 40 39
24 27 26 30 30 30 29 29 29 28 25 25 26 27 28 29 33 34 35 35 34 33 36 35 31 28 26 26 28 29 30 31 31 30 33 37 38 39
25 26 28 28 28 28 29 30 27 26 26 25 26 27 29 31 32 31 33 33 33 34 36 35 33 30 28 28 27 26 27 29 33 35 31 28 29 35
24 24 26 26 25 26 28 28 28 27 26 26 26 28 30 29 30 31 32 31 29 30 33 34 34 33 30 29 29 27 26 26 30 34 34 30 35 33
23 24 23 22 22 24 25 26 26 26 25 25 26 27 28 29 29 29 31 28 28 26 27 29 33 33 31 30 26 27 28 26 28 33 33 32 33 35
23 20 19 20 20 22 22 22 24 24 24 25 25 26 26 26 27 29 31 27 24 25 27 28 31 30 29 28 33 29 25 26 28 30 33 32 32 32
20 19 19 19 20 22 22 22 21 24 25 24 25 24 26 26 26 27 28 27 28 29 25 31 28 28 26 24 27 30 28 28 29 26 27 27 31 31
20 19 19 20 20 20 21 21 22 23 23 23 24 24 23 25 26 24 26 26 27 27 29 28 25 25 26 25 26 23 30 28 28 27 27 30 27 30
19 20 19 20 20 20 20 20 21 22 21 21 22 23 24 25 24 25 25 22 24 25 24 25 23 26 25 25 23 24 21 30 28 25 26 26 28 26
18 19 20 20 19 19 19 19 20 20 20 20 20 21 23 25 24 24 25 24 25 23 25 26 29 28 25 25 24 20 22 21 27 29 29 27 22 22
15 18 18 18 18 18 19 18 18 17 18 18 18 20 22 22 24 25 24 24 24 21 20 25 25 27 27 24 22 22 17 21 24 23 21 29 29 29

GFSNE_sfc_temp_009.txt.gz
Temp
39 40 42 42 41 42 41 40 36 32 34 35 36 43 45 45 46 47 47 47 46 46 48 51 52 52 52 52 53 53 54 55 55 57 57 58 58 59
42 40 39 40 42 41 40 38 38 37 32 36 39 43 46 51 48 46 47 47 45 45 46 48 49 51 51 51 51 51 52 52 53 53 54 56 57 58
39 40 40 42 41 39 40 40 40 38 32 37 38 40 41 42 46 47 48 46 46 46 46 46 46 47 47 48 48 49 50 50 50 51 52 52 54 56
36 35 36 41 37 38 39 39 38 39 38 33 34 36 38 40 41 42 49 53 48 47 46 46 46 45 45 45 45 45 46 47 47 48 48 50 51 51
34 34 34 34 33 35 35 34 34 38 33 32 30 34 35 38 39 39 44 44 50 50 45 45 46 46 45 45 45 45 45 45 45 45 45 45 46 47
34 33 34 33 33 33 35 35 35 31 30 29 29 30 32 36 35 33 34 36 38 47 47 44 43 44 44 44 44 44 45 45 45 45 43 42 42 44
31 33 33 34 37 37 36 34 32 29 28 28 27 28 28 30 30 31 29 31 33 36 35 36 38 39 41 42 43 44 43 44 44 44 44 43 42 42
28 29 30 33 34 35 36 34 34 31 28 26 26 25 26 27 29 27 27 26 26 33 31 30 34 34 37 39 43 42 43 43 43 43 43 43 43 41
27 28 29 33 32 32 34 34 33 34 31 29 27 26 26 28 28 26 25 25 25 30 30 25 25 29 33 41 42 43 43 43 42 42 42 41 40 40
28 29 28 28 30 31 30 29 29 30 31 32 29 29 29 30 30 31 29 29 28 29 31 25 24 25 27 30 39 42 42 42 42 42 42 41 40 39
29 29 29 28 31 32 29 27 27 29 34 36 36 34 34 34 34 32 28 27 24 26 28 24 23 23 24 27 30 39 40 41 41 41 41 41 40 39
26 28 30 29 30 30 27 24 23 26 28 27 27 29 32 32 34 32 30 27 26 20 27 27 27 24 22 24 27 29 28 36 39 40 41 41 40 37
24 25 27 29 30 30 30 26 25 28 28 26 25 26 28 30 31 32 32 30 28 27 30 31 24 23 24 24 23 26 25 28 30 34 39 40 40 39
23 24 25 28 29 29 28 29 30 28 23 24 24 25 25 27 30 31 32 32 33 31 34 33 29 28 27 26 23 25 24 26 25 26 27 35 38 39
24 25 27 27 27 27 28 28 27 27 25 24 25 26 27 28 30 30 31 32 32 32 34 34 32 31 30 27 24 25 25 26 23 26 31 32 29 26
24 24 24 25 24 25 25 26 26 25 25 23 23 26 28 28 28 29 28 30 30 29 32 33 33 32 30 30 29 28 27 27 27 29 33 33 32 29
22 21 21 21 21 22 23 23 24 24 23 23 23 24 25 27 27 28 28 30 24 24 25 27 31 32 32 31 27 28 29 25 26 25 29 27 33 33
21 18 18 18 18 20 19 20 22 23 23 23 23 23 24 24 25 27 26 24 23 26 22 25 24 28 29 30 33 30 25 25 25 29 26 30 30 29
18 17 16 16 17 19 19 19 19 22 23 22 22 22 23 24 25 23 21 21 22 26 28 28 29 29 27 23 26 31 29 27 27 21 22 24 29 32
18 17 16 16 18 18 18 19 19 21 20 20 20 21 22 23 19 22 21 17 23 25 24 24 23 21 20 20 20 16 30 23 24 22 21 25 27 30
14 17 17 17 17 17 15 16 17 17 16 17 18 19 19 22 22 19 19 19 18 24 22 21 22 23 23 22 22 18 18 30 24 19 21 20 22 27
7 13 17 18 15 16 14 14 15 14 14 14 14 16 18 21 20 20 20 20 17 16 19 21 26 26 21 22 20 18 16 14 23 29 29 26 19 19
3 7 9 12 14 14 16 14 12 9 11 12 12 13 14 16 19 21 17 18 21 16 16 21 23 24 23 22 19 21 13 12 19 17 18 28 29 29

GFSNE_sfc_temp_012.txt.gz
Temp
36 37 39 40 41 41 39 37 33 29 32 37 34 40 40 41 43 44 45 47 45 44 45 45 48 49 52 53 53 54 54 54 55 55 56 57 58 58
38 36 36 37 37 38 40 39 36 33 30 34 36 38 40 45 46 44 45 47 45 44 43 45 45 49 48 50 51 52 52 53 53 53 53 54 56 57
34 34 34 34 33 33 34 35 36 37 33 37 37 37 37 37 40 41 44 45 44 44 43 44 44 45 47 48 48 50 50 51 51 51 52 52 53 54
33 32 32 37 31 32 32 32 32 34 33 29 32 34 35 37 37 36 43 48 46 46 45 44 43 44 44 45 45 46 47 48 48 48 49 50 50 51
31 31 30 31 30 30 30 31 32 36 32 30 29 32 33 35 35 36 37 37 44 47 45 46 44 44 45 44 45 45 45 45 45 45 45 45 47 48
31 30 30 29 29 29 30 30 32 30 30 28 28 29 29 32 33 31 29 31 33 41 43 41 42 43 44 43 43 43 44 45 44 43 43 41 41 43
30 30 30 31 34 33 33 30 30 28 28 28 28 27 27 27 27 29 27 28 29 33 34 34 35 36 39 41 43 44 44 44 44 45 44 43 41 41
27 29 29 31 31 33 33 34 33 29 28 27 27 26 25 25 27 26 25 23 24 30 29 29 32 33 35 38 41 42 42 43 43 44 44 43 42 41
26 26 28 31 30 29 30 32 32 33 31 30 27 25 25 26 27 25 24 24 24 29 28 25 26 28 32 38 40 43 42 42 42 42 42 41 41 40
27 27 27 27 29 29 28 28 29 29 30 30 28 28 28 28 28 29 27 27 28 29 29 22 23 23 26 28 38 41 41 41 41 41 41 41 40 39
27 28 28 26 29 31 28 26 26 28 32 34 34 34 34 34 32 30 28 27 26 27 27 24 23 22 23 24 28 38 40 40 40 41 41 41 40 39
25 27 28 28 29 29 27 26 23 25 26 26 26 28 30 29 32 30 27 24 24 20 26 25 25 23 19 22 25 25 25 36 39 40 40 41 40 34
23 24 25 28 29 29 29 26 26 28 27 27 25 24 26 27 28 29 29 27 25 25 28 28 23 22 22 22 22 24 24 25 26 30 38 39 40 38
22 24 25 28 28 28 27 28 29 27 26 24 23 24 24 26 29 30 30 30 30 30 32 31 24 26 23 19 22 23 22 22 22 23 24 31 36 37
23 25 27 27 27 26 27 27 26 24 24 23 23 25 26 28 30 30 30 31 32 31 32 31 29 28 27 25 21 23 23 23 20 22 29 25 25 26
23 23 23 25 24 24 24 25 24 24 23 22 23 25 27 27 27 29 27 27 29 30 30 31 32 32 30 29 29 26 25 24 24 29 24 29 33 32
16 19 20 19 19 20 21 22 22 23 22 23 23 23 25 26 26 27 28 28 25 24 26 26 29 32 32 31 28 27 25 24 23 24 28 29 25 28
15 14 15 15 16 18 17 18 20 21 21 22 21 22 23 24 25 25 25 21 23 25 27 29 28 29 29 29 32 28 27 28 23 25 27 27 29 26
10 11 10 14 15 17 17 17 16 18 20 20 20 20 21 23 23 21 19 18 21 24 22 21 26 28 26 24 23 30 24 25 23 19 21 29 29 32
10 9 12 15 15 16 16 15 16 15 14 16 17 17 18 20 20 20 20 16 20 23 22 21 20 22 20 17 18 16 29 26 27 22 22 24 28 30
9 10 8 15 14 14 12 12 10 11 11 11 14 15 16 18 18 20 18 14 14 20 18 18 20 22 22 22 16 13 15 28 23 15 16 14 16 21
4 8 9 10 8 11 10 9 9 8 9 10 10 11 12 16 17 18 17 17 15 12 16 19 23 25 19 21 17 13 15 12 21 28 29 25 17 16
2 5 3 1 4 6 12 9 8 3 7 8 9 10 10 11 15 16 15 14 14 14 15 20 20 21 22 21 17 19 13 11 20 17 15 28 29 29

GFSNE_sfc_temp_015.txt.gz
Temp
34 34 34 35 34 35 35 35 33 27 28 31 32 39 39 39 40 39 41 46 45 44 43 44 46 48 49 52 53 54 55 55 56 56 57 58 58 58
35 33 33 33 32 32 31 32 32 32 28 32 33 36 39 43 43 38 39 46 45 43 42 43 44 45 48 48 48 51 53 53 54 54 54 55 56 57
32 32 32 32 30 29 30 30 31 30 28 32 34 36 37 37 38 38 39 39 40 43 42 42 41 42 44 46 45 46 48 51 52 52 53 54 54 55
31 30 30 35 29 28 28 29 29 30 29 27 30 31 33 36 36 34 40 43 38 45 43 42 41 41 42 43 43 44 45 47 48 49 50 51 52 52
31 30 30 29 27 27 28 27 28 32 30 29 29 29 30 31 32 34 35 33 40 43 43 42 42 42 43 43 43 44 45 45 45 45 46 46 47 49
31 30 29 29 27 27 28 27 30 28 29 29 27 28 30 30 29 28 28 30 30 38 40 40 41 42 42 43 43 44 45 45 45 44 43 42 43 45
30 30 30 31 34 32 30 28 27 27 29 27 28 28 28 26 26 27 26 26 27 29 31 34 36 37 39 40 42 43 43 44 45 45 44 42 42 42
27 28 28 30 30 32 32 32 31 27 26 26 26 27 27 26 26 25 25 23 22 28 27 27 34 33 35 38 41 41 42 43 44 44 44 43 42 40
26 26 27 30 29 28 29 31 31 31 30 27 25 26 27 27 26 25 23 23 23 27 26 23 24 29 33 37 39 41 42 42 42 42 42 42 41 40
26 26 26 26 27 29 27 27 28 29 30 30 27 27 28 29 28 28 27 26 26 27 27 25 20 23 24 28 37 40 41 41 41 41 41 41 40 39
26 26 27 27 28 30 28 26 27 28 32 33 33 33 31 32 31 28 26 26 25 28 25 23 22 22 22 23 29 38 39 40 40 41 40 40 40 39
24 26 27 28 29 29 26 25 23 26 27 27 26 27 29 29 31 28 24 23 24 19 25 24 25 22 18 20 22 24 25 35 38 39 40 40 40 33
23 23 25 28 29 29 28 26 25 27 27 27 26 25 25 26 27 28 27 25 23 23 27 26 22 21 21 21 21 23 23 23 24 27 36 39 40 37
21 23 24 28 27 27 27 27 27 25 24 24 24 25 25 26 28 29 29 29 29 28 29 29 22 24 22 19 20 23 21 21 21 22 22 30 35 37
21 25 26 26 26 25 26 26 24 23 22 21 22 24 25 27 29 29 30 30 31 31 31 30 28 26 24 23 21 19 21 22 18 21 29 25 28 28
19 18 20 23 20 21 21 23 22 23 22 22 22 24 26 27 27 28 27 28 27 29 31 31 30 29 28 29 29 24 23 25 22 26 25 20 23 26
11 11 14 16 16 18 18 19 20 21 20 21 21 21 23 25 26 27 28 28 24 24 25 29 31 31 31 30 28 29 22 25 25 23 24 23 22 24
12 6 3 7 13 16 15 15 16 16 18 19 19 20 20 22 24 25 25 23 24 25 25 27 29 29 29 29 33 30 27 28 29 29 27 27 23 24
6 4 -0 3 9 16 15 15 14 14 15 16 16 16 18 20 21 22 22 22 23 24 22 23 26 28 26 24 26 30 26 27 28 22 26 28 25 31
8 5 3 5 7 14 15 13 13 11 10 11 13 14 14 17 18 20 20 17 18 21 22 20 19 22 19 16 16 19 29 25 27 26 21 22 23 31
8 9 3 7 6 8 5 9 6 7 5 5 9 11 12 14 16 18 17 17 16 19 18 17 18 21 20 18 13 11 12 27 22 15 16 14 15 24
4 8 9 7 2 2 -2 -1 6 6 7 7 5 5 7 11 14 15 16 11 13 11 15 18 21 23 18 19 14 6 15 15 22 27 28 25 16 14
4 6 4 -0 0 -0 5 -1 0 -0 6 6 6 7 5 6 11 11 11 12 13 13 14 17 19 19 20 20 15 16 15 13 21 17 14 27 29 29

GFSNE_sfc_temp_018.txt.gz
Temp
35 34 34 34 33 33 32 32 30 24 27 34 34 39 40 41 42 42 40 43 45 44 44 44 45 46 48 48 50 52 55 58 59 59 59 59 59 60
35 33 32 32 31 31 30 30 30 28 24 33 35 36 39 43 43 43 41 45 43 44 43 43 43 43 43 44 48 48 49 53 55 56 56 58 58 59
32 32 32 32 30 30 30 30 29 29 25 30 34 36 35 37 40 40 41 41 39 42 43 42 42 42 42 42 44 46 47 47 51 53 55 56 57 58
31 31 31 34 30 29 29 28 28 29 27 25 30 31 32 36 36 36 40 43 39 43 43 43 42 41 41 41 41 43 45 45 47 49 51 53 54 55
30 30 30 30 28 28 28 27 28 30 29 27 27 31 32 33 34 34 35 36 39 41 41 41 42 42 42 41 41 43 43 44 44 45 46 47 48 50
31 30 29 29 28 28 28 28 29 27 28 27 28 29 30 33 32 32 31 33 33 38 39 40 40 42 41 41 41 43 43 44 45 44 43 42 43 46
29 30 30 31 33 32 30 29 28 26 26 27 27 28 29 29 29 30 30 30 31 32 33 35 36 39 39 40 41 42 43 43 43 44 44 43 42 43
26 27 28 30 30 31 31 31 30 26 25 25 26 25 26 29 29 27 29 26 26 32 31 30 34 36 37 38 40 40 41 43 43 43 44 43 42 41
25 25 26 30 28 28 29 30 30 31 29 28 25 26 26 29 30 28 27 26 26 30 30 28 30 31 35 38 38 41 41 41 42 43 42 42 41 40
26 25 25 26 27 28 27 28 29 30 30 30 29 29 30 30 30 30 30 29 28 30 30 26 28 29 31 33 37 39 41 41 41 41 41 41 40 39
26 27 27 26 28 30 27 26 27 29 32 33 32 32 33 33 31 29 25 26 25 29 30 29 27 27 29 31 34 38 39 40 41 41 41 41 40 39
25 26 27 27 29 29 26 24 23 26 28 29 29 30 30 29 30 29 27 24 25 23 29 27 27 28 25 28 29 31 32 36 39 40 40 41 40 39
23 23 25 27 29 29 29 25 25 26 26 26 27 27 28 28 28 29 29 27 25 25 30 29 27 26 27 27 29 30 31 32 34 35 38 39 40 39
20 22 22 27 27 27 26 27 27 24 23 23 23 25 25 27 29 30 29 29 29 29 32 31 27 28 27 25 26 29 30 30 31 32 32 32 36 38
20 23 25 25 24 24 25 25 23 22 22 21 21 23 25 27 29 29 31 31 31 31 31 30 29 29 29 27 27 27 29 31 28 30 29 30 32 32
17 16 17 21 17 19 21 21 20 20 20 20 20 22 25 26 27 29 28 29 28 29 32 32 30 30 28 29 30 28 29 29 29 29 28 29 31 33
10 9 11 12 15 17 18 18 18 18 17 18 19 20 21 23 25 27 27 28 27 27 28 30 31 31 31 31 29 30 30 29 30 30 29 29 31 32
12 5 -0 -1 6 14 15 15 16 14 14 16 17 18 18 20 22 25 25 25 25 25 26 27 30 29 30 30 32 30 31 30 32 31 30 29 29 32
7 4 -3 -3 2 12 14 14 13 13 13 12 14 15 16 18 20 21 22 22 23 24 25 26 27 29 27 25 27 30 29 29 30 29 30 29 29 33
9 6 3 3 7 11 12 11 12 11 10 10 10 12 13 15 17 18 19 18 20 22 23 25 24 24 25 24 25 26 28 27 29 28 27 28 29 29
9 10 5 7 8 9 2 0 -1 7 7 5 7 8 9 12 15 16 15 12 14 20 19 20 23 23 24 24 22 22 23 26 26 26 24 24 25 27
7 9 10 9 6 5 -1 -5 0 0 6 9 7 5 6 8 11 12 13 13 15 16 17 21 24 25 24 24 22 19 22 23 25 27 28 27 26 24
7 8 8 4 3 2 6 2 1 -3 2 6 8 9 6 7 10 11 10 13 15 15 16 17 20 22 23 22 20 21 21 20 24 24 25 26 29 29

GFSNE_sfc_temp_021.txt.gz
Temp
47 46 46 46 45 44 42 40 35 29 34 41 41 47 48 48 48 49 49 47 45 45 45 45 46 47 46 46 47 50 51 53 57 59 60 61 62 62
46 45 45 44 43 43 42 40 39 35 31 39 41 43 44 46 46 47 48 47 45 43 43 44 44 44 44 45 45 48 49 49 51 56 58 60 60 60
44 43 42 43 42 42 42 41 39 38 33 37 40 42 41 41 43 45 47 48 49 43 43 43 43 43 43 43 43 44 46 47 49 50 56 58 58 59
42 41 40 41 40 40 39 38 37 37 34 32 36 38 39 41 41 42 44 48 49 46 42 42 42 42 42 42 42 42 43 44 46 47 48 54 56 58
40 39 39 38 37 38 37 36 36 35 35 32 32 37 38 39 38 41 43 44 47 45 42 42 42 42 42 42 41 42 42 43 44 44 45 45 49 52
39 38 37 36 36 36 34 33 33 31 31 31 31 33 34 38 37 36 37 43 43 46 44 41 40 41 42 42 41 42 42 43 44 44 43 42 43 46
37 37 36 34 32 33 33 32 31 30 30 30 31 32 32 33 32 36 34 37 39 43 43 44 45 46 45 40 42 41 41 42 43 44 44 42 43 44
34 35 35 33 33 31 31 31 31 29 29 29 29 30 32 33 34 34 32 31 32 44 40 41 44 43 45 42 39 39 40 42 42 42 43 43 43 42
33 33 32 33 32 32 32 32 32 32 31 30 28 31 31 34 33 32 32 32 32 36 38 36 40 39 43 44 40 39 39 40 41 41 41 41 41 41
33 32 32 32 32 30 30 31 32 34 34 34 33 33 34 35 35 33 32 33 35 38 39 31 38 36 40 42 39 39 38 40 40 40 40 41 40 40
32 33 32 31 30 30 30 28 30 32 34 33 33 33 33 33 33 33 30 30 29 35 39 32 33 35 38 39 41 39 39 38 40 40 41 41 40 39
31 32 29 29 28 30 28 27 25 29 31 31 33 34 34 34 31 34 33 28 30 30 38 32 35 36 34 40 40 41 41 38 39 41 41 41 41 46
29 29 30 27 28 28 28 28 26 28 28 29 31 33 34 34 34 34 36 34 32 33 39 37 35 36 35 37 39 41 40 39 41 41 39 40 40 42
27 28 28 27 27 26 27 26 25 26 27 26 27 29 29 30 33 34 35 35 37 36 39 37 33 35 33 32 34 39 39 40 41 40 41 39 37 39
28 27 25 25 24 26 25 24 24 25 24 24 24 26 28 30 32 32 34 35 35 35 35 35 33 33 34 31 34 35 37 38 39 39 39 40 41 41
26 26 23 23 23 23 25 26 25 23 22 23 24 26 28 29 30 31 31 32 32 33 34 33 33 33 31 34 33 32 35 33 37 38 37 37 40 42
23 25 24 23 23 24 24 24 24 23 22 23 23 24 26 28 28 30 30 31 30 30 31 33 33 33 34 34 31 33 33 34 36 35 33 36 39 41
25 23 21 20 21 22 22 22 23 20 20 22 23 23 23 24 26 29 30 29 28 29 29 31 33 31 31 32 33 33 35 34 35 36 35 33 35 40
24 24 21 20 20 22 22 22 21 21 19 20 21 21 22 23 25 26 27 28 28 29 30 31 31 31 30 29 32 30 33 34 33 32 33 32 32 35
25 24 23 22 22 22 22 21 21 20 20 18 19 19 20 21 23 23 25 24 26 28 30 32 31 30 29 28 29 30 29 32 31 30 31 33 34 31
26 25 25 24 23 23 21 19 18 19 17 17 18 18 18 20 21 22 22 21 23 26 26 28 30 27 31 31 28 29 30 27 30 31 32 32 32 32
27 26 26 25 24 23 22 20 19 20 19 19 18 18 18 18 19 19 21 21 23 24 25 28 30 31 31 31 30 27 30 30 29 28 29 29 33 30
27 27 26 25 24 23 22 22 20 19 19 18 18 18 17 17 19 20 20 21 22 22 23 24 27 29 29 29 27 29 27 28 32 31 30 27 29 30

GFSNE_sfc_temp_024.txt.gz
Temp
53 51 50 50 52 51 50 47 40 34 38 45 46 51 52 52 50 50 50 48 47 46 45 45 47 47 47 48 48 48 49 52 52 53 55 59 61 63
52 49 49 51 51 50 49 48 45 40 37 45 46 48 49 50 49 48 49 46 45 44 44 44 45 45 45 46 46 46 47 49 50 51 52 55 59 61
49 49 49 49 49 49 48 47 45 44 39 43 45 47 45 45 46 46 47 49 50 46 44 43 43 43 44 44 44 44 45 46 48 49 50 52 57 60
48 48 47 49 46 47 46 45 44 43 38 36 40 40 41 43 43 43 46 48 49 49 44 43 42 42 42 42 43 43 43 43 44 46 47 48 51 58
47 46 45 45 43 44 43 42 41 40 39 36 35 38 40 41 41 42 42 44 48 47 44 42 43 43 42 42 42 42 42 43 43 44 44 44 45 52
46 45 43 42 41 40 39 40 38 37 37 34 34 34 37 41 42 38 38 42 42 47 47 43 43 44 42 42 42 43 42 43 43 43 44 42 43 46
44 44 43 39 34 35 36 35 34 33 32 33 32 33 34 36 34 38 36 40 42 43 42 45 47 49 47 42 43 42 40 41 42 44 44 43 42 42
42 42 42 38 38 34 33 33 33 31 31 31 30 31 33 35 37 36 35 34 33 43 36 41 45 45 47 49 41 40 40 39 40 43 43 43 42 41
40 40 39 40 37 37 34 33 33 33 31 33 30 32 33 35 36 35 35 34 34 40 37 36 42 41 45 49 41 40 40 38 39 41 41 42 41 41
40 39 39 38 37 33 31 33 36 37 38 36 35 35 36 37 36 36 35 36 37 40 41 33 40 38 42 45 42 40 40 38 38 40 40 40 40 40
39 39 37 36 32 30 31 31 33 35 36 35 34 34 34 34 35 35 32 32 30 35 42 37 37 37 39 40 43 40 39 36 36 38 40 40 40 40
38 38 34 32 29 29 29 29 28 30 32 33 34 36 37 38 34 35 34 31 32 31 39 36 37 36 34 42 43 44 43 35 35 38 38 40 40 47
34 35 36 30 29 28 28 29 27 29 29 31 33 34 37 36 38 38 36 36 33 33 40 40 38 37 37 36 42 43 43 40 38 38 38 38 39 41
31 34 32 28 27 27 28 26 27 27 29 28 30 30 31 32 34 36 37 38 39 37 41 39 36 36 34 34 36 42 43 43 43 40 42 42 39 39
32 30 27 27 27 29 28 26 27 29 27 26 27 28 30 32 34 34 35 36 38 38 39 39 38 37 36 34 36 38 39 40 42 42 41 42 43 44
32 32 29 25 28 28 31 31 30 28 26 25 26 29 31 32 32 34 32 33 34 35 37 37 36 35 34 36 36 35 38 36 40 41 40 41 43 45
27 30 31 30 30 31 31 30 30 29 27 26 27 27 28 30 30 32 32 33 32 33 34 36 34 35 36 36 34 36 36 37 37 36 38 39 41 43
29 30 29 28 27 29 28 29 29 28 27 27 26 27 26 26 28 31 31 31 30 31 32 34 34 33 33 33 33 34 38 38 39 38 37 36 38 42
28 31 29 28 28 29 29 29 27 28 26 27 26 26 26 26 27 28 29 29 29 31 33 33 33 32 31 29 34 30 33 37 36 36 37 35 34 38
29 30 29 29 29 30 29 29 28 27 27 26 25 25 25 26 26 26 26 25 27 30 31 34 33 31 28 28 30 31 29 34 35 34 34 35 35 31
32 33 32 31 31 30 29 27 25 25 24 24 25 24 24 24 25 26 26 26 27 29 28 30 32 30 33 34 30 30 31 30 31 32 34 34 33 33
32 33 33 33 31 30 28 27 26 26 26 25 25 24 25 25 24 24 25 25 27 27 29 31 32 32 32 32 31 29 31 31 30 30 30 29 31 31
32 32 32 31 31 29 29 28 27 26 26 25 25 24 24 24 25 24 25 26 27 26 27 28 30 32 32 32 30 31 29 29 32 32 31 28 30 30

GFSNE_sfc_temp_030.txt.gz
Temp
43 43 42 44 45 41 41 40 36 29 32 38 38 43 43 42 43 43 42 46 46 45 46 46 47 47 48 48 49 49 50 50 51 51 51 51 53 54
44 42 43 42 41 41 41 41 39 37 32 38 40 39 40 45 44 42 42 45 44 44 45 45 46 47 47 47 47 48 48 49 49 49 49 49 51 52
41 43 43 43 39 39 40 38 37 36 33 36 39 39 37 36 39 40 41 41 41 44 44 44 44 44 45 45 45 46 46 47 47 47 47 48 49 50
42 43 42 46 39 38 36 35 34 36 33 31 34 34 34 36 36 36 41 44 41 44 44 44 44 43 43 43 43 43 43 44 44 44 45 45 46 47
41 40 40 39 35 34 33 32 33 36 33 30 30 33 33 35 34 36 37 37 42 44 44 44 44 43 42 42 43 43 43 43 43 42 43 43 43 44
41 40 40 38 34 32 33 30 32 29 30 28 29 29 31 33 33 31 31 34 34 42 43 42 42 42 42 42 41 42 43 43 43 42 42 41 41 42
39 41 39 38 39 35 33 29 28 27 27 27 27 27 28 29 28 30 29 31 32 35 35 34 37 37 37 39 41 43 42 42 41 41 41 41 41 42
35 36 37 40 38 37 37 36 33 26 25 25 26 25 27 29 29 29 28 27 25 33 31 31 34 34 36 35 39 41 37 36 41 40 40 40 42 40
35 34 36 41 34 31 33 33 33 34 32 29 27 27 27 28 29 27 26 26 26 31 30 28 30 31 37 43 40 41 40 40 40 39 38 40 40 40
35 34 33 32 28 29 27 27 29 30 32 34 28 28 29 30 30 30 28 29 30 31 33 26 27 30 32 33 40 42 41 40 39 37 37 39 39 39
36 35 35 32 31 32 27 25 26 28 35 34 33 34 35 35 35 31 26 25 24 27 31 27 27 29 29 28 32 41 41 40 39 37 36 38 39 39
32 33 33 31 31 30 24 23 21 25 26 27 28 31 33 33 34 33 29 27 27 26 30 26 29 29 24 27 34 33 32 38 37 36 36 38 39 38
28 28 29 31 31 31 29 24 23 27 26 26 27 28 30 32 31 31 31 30 28 26 32 32 27 27 26 28 30 33 33 30 33 33 35 37 39 39
27 28 28 32 32 31 29 30 31 27 23 21 24 25 26 27 30 30 31 32 34 32 33 33 27 28 26 25 26 31 33 29 29 33 33 35 37 38
27 30 32 32 32 29 32 31 26 23 20 17 21 22 26 28 30 30 31 31 34 33 36 32 27 30 27 25 25 26 29 32 29 33 32 32 32 33
28 29 27 27 24 25 24 27 25 23 21 19 18 24 24 27 26 28 27 29 28 30 34 32 32 31 27 27 27 25 30 29 32 33 34 33 34 35
23 23 22 25 24 24 24 25 24 24 21 19 18 20 23 24 25 27 28 27 25 26 28 32 33 32 31 30 24 27 27 29 33 33 33 32 33 34
23 20 19 22 22 22 21 21 22 22 22 21 20 20 21 21 22 25 27 26 24 25 26 29 30 30 30 29 31 28 27 26 28 30 31 29 30 33
21 20 22 24 25 24 23 22 20 20 21 20 19 18 18 23 21 22 23 25 23 24 26 28 28 25 23 23 28 31 26 26 26 24 26 27 28 31
26 24 24 25 25 24 23 22 21 19 18 18 15 19 18 18 21 20 20 21 21 24 25 28 26 25 23 23 26 24 32 29 29 24 24 25 29 32
27 27 26 26 28 25 22 22 19 18 16 13 14 18 19 20 16 22 16 18 20 24 22 24 26 28 30 28 26 26 26 32 30 25 26 24 23 25
28 29 28 26 27 28 24 21 20 17 19 17 17 13 18 14 14 19 17 12 20 20 22 25 28 29 28 29 26 22 25 23 29 30 30 28 22 25
29 29 28 28 29 29 24 22 23 20 19 17 16 15 13 11 17 20 19 20 17 20 19 20 25 28 26 28 26 25 22 22 24 23 22 30 30 30

GFSNE_sfc_temp_033.txt.gz
Temp
39 40 39 41 42 42 40 39 36 28 30 33 32 38 37 38 40 39 38 43 45 44 44 45 46 47 47 48 48 49 49 50 51 51 51 52 52 52
40 38 38 39 41 40 39 37 36 33 26 32 32 34 36 40 41 38 38 44 43 43 43 44 45 46 46 46 46 47 48 48 49 50 50 50 50 50
39 38 39 42 39 39 36 33 31 30 26 29 32 32 32 32 36 36 37 37 38 42 43 43 43 44 44 44 44 45 46 47 47 48 48 49 49 49
38 39 41 43 35 33 30 29 29 29 27 26 27 29 29 31 33 32 37 41 38 41 42 42 43 43 43 42 43 43 43 44 45 45 46 46 47 47
38 38 37 36 31 29 29 28 28 32 27 25 26 28 28 30 31 32 33 32 38 41 41 41 42 42 42 41 41 42 42 43 43 43 43 43 43 44
38 37 37 34 31 30 31 28 29 26 26 24 26 26 28 30 29 27 28 30 30 37 38 39 40 40 41 41 40 40 41 42 42 42 42 40 40 41
36 37 36 37 39 34 31 27 26 24 24 24 24 25 26 26 26 28 26 28 29 30 31 32 33 34 35 38 38 38 39 40 41 43 42 41 40 40
32 34 34 37 36 37 36 34 31 25 22 19 24 23 25 27 27 25 25 23 22 28 27 27 31 31 33 34 38 38 37 38 37 39 41 41 40 39
32 32 34 36 32 30 31 31 30 32 29 25 24 25 23 25 25 25 25 23 23 28 27 25 29 27 31 39 39 39 40 39 39 39 40 39 38 39
32 32 30 28 28 28 27 26 26 27 28 30 25 25 26 27 27 28 27 27 28 29 31 25 27 27 28 31 36 39 39 40 40 40 39 37 38 39
32 32 32 28 31 32 27 25 24 25 31 33 32 32 33 34 33 30 27 26 24 27 28 26 24 25 25 25 30 38 37 37 39 39 38 36 38 38
29 30 33 29 31 30 24 22 19 23 25 25 26 27 30 30 32 30 27 24 24 24 28 28 26 25 22 25 28 30 31 35 38 38 36 36 38 38
27 27 27 32 31 32 31 23 21 26 26 25 24 25 27 28 29 29 29 27 25 25 32 30 27 25 25 25 27 32 30 33 28 32 36 36 38 38
27 26 26 33 33 32 30 29 30 28 17 19 20 22 22 24 27 28 28 28 30 30 32 32 29 26 25 24 24 28 31 32 32 32 33 34 37 38
26 27 31 32 32 30 31 32 27 22 18 14 17 18 20 25 27 27 28 28 29 30 34 32 30 29 28 25 24 24 26 30 32 30 32 32 32 33
27 27 25 25 22 23 24 27 24 21 19 18 16 18 20 21 20 24 24 25 25 26 31 31 31 31 28 26 26 24 25 27 32 32 32 32 32 32
19 25 21 19 21 24 23 23 22 21 19 15 15 16 19 20 20 22 24 25 20 23 25 29 31 31 32 30 28 25 25 25 30 32 32 31 32 32
25 19 12 10 16 22 21 20 19 19 19 18 14 16 16 16 18 22 22 21 21 22 23 26 27 27 28 28 32 28 26 25 26 29 30 30 31 32
17 17 12 14 17 22 23 20 18 17 18 17 15 13 14 17 17 19 18 19 20 22 24 26 25 23 21 21 28 31 25 25 28 23 24 26 30 32
23 21 19 19 21 23 22 21 18 15 14 14 11 8 7 12 13 16 18 10 18 21 22 25 24 23 22 22 24 23 32 27 28 23 22 29 29 31
24 25 23 23 23 23 22 21 16 11 10 7 8 8 10 11 10 13 16 13 12 21 19 20 23 26 28 28 24 23 22 31 30 25 26 23 22 24
25 25 26 25 24 25 26 24 18 13 11 8 7 10 5 6 7 8 11 10 15 14 20 21 25 27 26 27 25 22 23 23 28 30 30 28 24 24
27 27 27 26 26 24 22 23 24 19 18 14 12 9 2 7 8 9 11 14 16 14 16 18 21 24 25 26 24 24 21 21 25 24 23 30 30 30

GFSNE_sfc_temp_036.txt.gz
Temp
37 37 36 37 38 39 40 38 34 28 26 29 30 35 34 35 37 36 36 41 43 43 43 43 44 45 46 46 47 47 48 49 49 50 51 52 52 52
38 36 36 37 40 39 38 37 35 33 25 28 29 30 32 37 38 36 35 41 40 41 42 42 43 44 44 45 45 46 46 47 48 49 49 50 51 52
38 38 38 39 37 36 34 34 33 30 25 27 29 29 28 28 32 33 34 34 34 40 41 41 42 42 43 43 43 44 44 45 45 46 48 49 50 49
38 38 38 42 36 33 30 30 29 28 26 24 25 26 27 29 29 28 34 38 33 38 40 40 40 41 41 42 41 42 42 43 43 44 45 47 47 48
38 36 36 36 33 30 29 29 28 32 26 25 25 26 25 27 28 29 30 30 35 38 38 38 39 40 40 41 41 41 41 41 41 42 42 43 44 44
38 37 36 34 32 31 31 28 28 26 25 24 25 25 25 28 27 25 27 29 29 34 35 35 37 38 39 39 40 40 41 40 40 41 41 41 40 42
36 36 35 36 39 34 30 27 26 24 23 23 23 24 25 25 24 26 25 26 27 29 28 29 30 31 32 35 37 39 40 38 39 40 41 41 40 40
33 33 33 37 36 36 36 34 30 24 21 18 21 21 22 23 24 24 24 22 22 27 25 26 29 28 30 31 35 38 40 40 36 39 40 41 41 40
31 31 33 35 33 30 33 32 30 31 27 22 21 21 22 24 24 23 24 23 24 27 26 25 27 26 31 35 37 38 38 39 40 39 40 40 39 39
31 31 30 29 29 29 27 26 26 26 27 28 24 24 24 26 27 28 27 27 27 28 27 23 26 26 29 29 36 37 38 38 38 38 40 39 39 37
33 33 31 29 31 33 27 26 25 25 31 32 32 32 32 32 32 29 24 23 22 25 26 26 26 26 28 29 29 37 38 38 38 38 39 40 39 37
30 30 34 30 32 31 25 23 20 24 25 25 26 27 28 28 31 27 25 22 22 22 27 25 27 28 22 24 25 28 28 34 37 37 39 39 38 33
28 27 28 33 32 32 32 23 21 26 25 25 24 24 25 26 27 28 27 24 23 23 29 28 27 28 27 24 24 26 27 31 29 30 36 36 37 36
28 28 27 32 33 32 31 30 31 27 18 18 19 20 21 22 25 26 27 27 27 26 28 29 28 29 27 25 22 24 29 30 31 33 32 35 36 36
28 29 31 32 33 31 32 31 26 22 19 13 18 18 19 22 25 25 27 27 28 28 31 28 28 28 29 27 25 22 24 29 31 33 32 33 33 34
28 30 25 25 22 23 22 26 24 22 21 19 16 16 19 19 19 21 20 22 23 24 29 27 28 28 26 29 28 23 24 25 28 32 32 32 32 32
25 23 22 21 23 23 22 23 22 22 20 17 14 15 17 18 18 20 20 20 18 21 23 26 29 29 27 30 28 29 27 25 28 32 32 31 32 32
25 23 23 22 21 21 19 19 19 19 19 19 14 15 15 14 15 19 20 17 17 20 21 24 25 24 25 25 31 28 28 27 27 28 31 30 31 32
26 22 22 18 18 20 21 20 19 20 18 19 17 15 12 15 14 16 16 16 17 19 21 22 21 20 18 15 24 31 25 25 27 22 27 28 29 29
26 23 21 19 19 20 21 20 20 15 16 16 12 9 4 10 11 13 15 10 14 18 21 22 21 21 18 15 20 21 30 25 28 22 27 29 30 31
28 26 24 23 21 22 21 18 16 15 15 11 11 9 2 10 9 11 9 12 11 18 18 19 21 25 25 26 20 19 20 30 30 25 27 20 21 26
28 26 26 25 24 23 21 20 17 18 18 15 11 5 2 6 6 6 4 9 16 12 16 20 23 25 25 25 23 17 20 19 27 30 30 27 20 19
28 27 26 26 27 25 24 23 21 21 21 21 17 12 4 5 9 6 5 10 14 12 13 15 20 22 23 24 23 22 21 19 22 21 22 29 30 30

GFSNE_sfc_temp_039.txt.gz
Temp
37 38 38 38 39 39 40 38 34 30 29 31 31 32 33 33 34 34 32 38 41 41 41 42 43 44 44 45 46 47 48 48 49 49 50 51 51 51
38 37 37 37 37 38 37 36 35 32 25 29 29 30 30 35 34 32 31 38 38 39 40 41 41 42 43 43 44 45 46 46 47 48 48 49 50 50
37 37 37 37 36 36 33 33 31 30 26 29 28 28 27 27 29 29 31 30 31 38 39 39 40 40 40 41 42 43 44 44 45 46 46 47 48 49
37 36 37 41 35 33 31 30 30 29 27 25 25 25 26 27 27 26 32 35 31 36 38 38 38 39 39 40 40 41 41 42 42 43 43 44 45 47
37 36 37 35 33 31 30 29 28 31 26 24 24 25 25 25 27 28 28 29 33 37 37 37 37 37 38 39 39 40 40 41 41 41 41 40 41 44
37 36 36 34 32 30 30 29 28 26 25 23 23 24 24 26 25 24 26 28 28 33 34 34 35 36 37 37 37 38 39 40 40 41 40 39 40 41
36 35 35 35 38 34 30 27 26 24 23 22 22 23 23 23 22 24 23 25 26 28 28 28 30 30 31 33 35 37 37 38 39 40 39 39 40 40
33 33 33 37 37 38 37 34 29 24 22 18 20 20 21 21 22 22 22 21 21 26 25 26 29 28 30 30 34 36 37 38 39 40 40 40 40 40
32 32 32 35 34 31 34 34 33 32 27 22 19 20 20 22 23 22 23 24 23 27 25 25 28 26 31 33 35 37 38 38 38 39 39 39 39 39
31 31 30 31 30 30 28 27 27 27 28 28 24 23 24 25 25 26 26 26 26 26 26 22 26 26 29 30 34 36 37 38 39 39 38 38 38 38
33 33 31 29 32 34 28 26 26 27 31 32 32 32 32 32 31 23 22 22 20 23 26 24 24 26 28 28 30 35 37 37 37 38 38 38 38 38
30 31 34 31 32 33 26 23 21 24 26 25 26 27 28 27 30 26 23 20 21 19 26 21 25 26 23 24 24 27 28 33 36 37 37 37 39 32
30 29 30 33 33 33 32 24 22 26 25 24 25 24 25 26 27 27 26 23 21 22 27 26 23 25 27 25 24 26 27 28 29 31 36 35 37 37
29 29 30 33 33 33 31 30 31 26 22 20 19 20 20 21 25 25 26 26 26 25 27 27 24 25 25 24 25 24 25 28 28 31 32 35 35 36
31 30 32 33 33 31 32 32 27 22 20 13 17 19 18 22 25 24 26 25 25 26 30 27 25 26 26 24 25 27 23 25 28 29 32 33 32 33
30 30 30 28 27 25 23 27 23 21 21 19 17 16 17 18 18 20 18 21 20 20 27 27 27 26 23 25 26 27 27 26 27 30 32 32 32 32
30 29 26 25 24 23 22 23 22 21 18 15 14 15 16 18 17 18 18 18 14 17 20 25 28 27 26 26 25 28 28 28 26 28 30 31 32 32
28 25 26 24 24 23 21 21 19 18 20 19 15 16 17 15 15 17 18 15 15 17 18 21 22 22 23 24 30 26 27 24 25 28 29 29 30 31
28 27 24 25 24 22 22 21 20 19 20 18 17 16 16 14 13 14 14 14 13 17 18 20 20 19 16 14 22 30 26 27 25 28 28 28 27 28
30 27 24 25 24 22 22 21 21 19 15 16 13 15 12 12 10 12 13 7 11 16 18 20 19 19 17 14 18 19 29 26 26 26 27 27 28 31
31 30 27 26 25 23 22 22 21 17 11 8 15 15 11 13 10 12 9 9 9 17 16 16 19 23 24 25 18 18 21 28 29 26 26 23 24 25
31 28 28 27 26 24 22 21 19 15 13 13 14 15 13 10 10 8 2 4 12 11 14 18 21 23 23 24 22 19 20 20 26 29 29 29 25 23
31 29 28 28 26 25 24 22 22 21 20 18 18 17 12 9 11 9 4 9 12 11 12 13 17 19 21 23 22 21 23 21 21 20 21 28 30 30

GFSNE_sfc_temp_042.txt.gz
Temp
38 37 36 37 38 38 38 39 34 30 30 33 33 35 35 35 36 36 34 37 39 40 40 41 42 43 43 44 45 46 47 47 48 48 49 50 50 50
38 36 36 37 36 36 36 36 36 33 28 32 32 33 34 36 35 35 33 38 37 38 39 39 40 41 41 42 43 43 44 45 46 47 47 48 48 49
38 36 36 36 35 35 35 34 32 32 28 31 31 32 30 31 32 31 32 32 33 36 38 38 39 39 39 40 40 41 42 43 44 45 45 46 47 48
36 36 36 39 34 34 32 31 30 30 29 27 28 28 28 30 29 29 32 34 33 35 36 38 38 38 38 38 39 39 40 41 42 42 43 44 45 45
36 35 35 35 33 32 31 30 29 32 29 26 26 28 28 28 29 30 30 31 33 36 36 36 36 37 37 38 38 39 39 39 40 40 41 41 42 42
36 35 36 34 33 32 31 29 29 28 27 25 25 26 26 28 27 26 26 29 29 32 33 34 35 36 36 36 37 37 38 38 39 40 40 40 40 40
35 35 34 35 38 34 31 29 28 26 25 25 24 25 25 24 24 26 24 26 27 30 30 31 32 33 33 34 35 36 36 37 38 39 39 39 39 39
33 32 34 37 37 38 37 36 30 26 24 22 23 22 23 23 24 23 23 23 22 31 28 28 32 30 32 33 34 36 37 38 38 39 39 39 40 39
32 33 33 35 34 33 35 36 34 33 27 26 22 23 21 24 25 23 24 24 24 29 28 25 30 28 32 34 35 36 36 37 38 39 39 39 38 38
32 32 32 32 33 31 30 29 29 29 29 29 26 25 25 27 26 27 25 25 27 29 29 21 29 27 31 32 34 35 36 36 38 39 38 38 38 38
32 32 32 33 34 35 29 27 27 28 32 33 33 31 32 32 32 27 23 22 20 23 28 24 27 26 29 30 33 35 37 37 37 38 38 38 38 38
30 33 35 32 33 34 29 26 23 26 27 27 27 28 30 29 30 28 25 20 20 20 28 23 25 26 24 30 30 33 34 34 35 36 37 38 37 36
30 30 31 34 34 34 33 26 25 28 26 25 26 26 27 27 28 29 28 25 21 21 28 27 25 25 25 25 30 32 32 32 32 33 34 35 36 37
29 30 31 33 34 34 33 31 30 27 23 22 21 22 22 23 26 27 28 27 28 26 28 27 24 24 24 23 24 30 31 32 31 31 33 34 35 35
30 31 33 33 34 32 32 32 29 27 23 20 21 21 23 25 27 26 27 27 27 27 30 28 26 26 25 24 24 26 27 31 32 30 31 32 32 33
29 31 30 30 29 30 29 30 29 27 24 22 21 22 21 21 22 24 21 22 21 21 27 27 27 27 24 25 26 25 30 28 31 31 30 31 33 33
26 29 28 27 27 27 26 26 26 25 23 21 19 19 19 20 20 22 21 21 18 19 21 25 27 27 26 25 23 28 28 29 29 28 30 30 32 32
29 28 27 25 25 26 26 25 25 24 24 22 19 19 19 19 19 20 20 19 17 19 20 22 22 21 24 26 30 27 28 27 29 29 31 29 29 30
30 29 28 28 28 27 27 25 23 23 23 22 21 19 18 19 17 18 18 18 17 18 20 21 21 19 17 16 24 30 25 27 28 29 30 29 29 30
31 30 30 30 29 27 26 25 24 23 20 20 18 17 16 17 16 17 18 14 16 18 19 21 20 20 18 18 20 24 28 26 27 27 29 29 31 31
30 29 30 30 29 28 27 25 24 22 19 16 18 15 14 17 15 16 16 11 12 18 18 18 21 22 24 25 21 22 26 28 29 27 28 26 27 28
30 29 29 30 29 27 26 25 23 21 19 16 16 16 14 15 16 15 12 13 16 17 17 20 22 23 23 23 22 23 25 26 27 28 29 29 27 24
29 29 29 29 29 27 26 24 23 22 21 20 19 17 15 16 17 17 14 14 16 16 16 17 19 20 21 22 21 21 23 24 26 25 26 28 29 29

GFSNE_sfc_temp_045.txt.gz
Temp
51 50 50 52 51 51 49 48 42 36 41 47 45 48 49 48 46 45 45 42 39 40 39 40 41 42 42 43 44 45 46 47 47 48 48 49 49 50
50 49 49 50 50 49 49 48 46 40 38 47 47 47 47 47 45 44 44 39 40 38 38 39 39 40 41 41 42 43 43 44 45 46 47 48 48 49
49 49 48 49 49 48 48 48 46 44 39 45 46 46 44 43 44 44 43 42 43 39 38 38 38 39 39 39 39 40 41 41 43 44 45 46 47 47
49 48 48 48 47 48 47 46 46 46 42 40 44 43 41 42 42 40 41 42 42 40 37 37 37 37 38 38 38 39 39 40 41 41 42 43 44 45
49 48 48 47 46 47 46 46 46 44 43 40 40 43 41 41 40 40 40 40 41 39 38 37 37 37 37 38 38 38 39 39 39 39 40 41 41 42
48 47 47 46 46 47 46 45 44 43 42 40 40 39 40 40 38 36 36 39 38 40 39 37 36 37 37 37 37 37 38 38 39 39 39 39 39 40
47 46 46 46 43 44 45 45 43 41 41 39 38 38 37 37 35 36 34 36 38 39 39 40 40 41 41 39 39 38 38 37 38 39 39 39 39 39
46 46 46 40 40 38 38 38 41 41 38 38 37 36 36 36 35 34 33 32 30 41 36 36 40 39 40 41 39 37 37 37 37 38 39 39 39 39
45 46 45 43 40 44 39 37 37 35 33 39 35 36 34 36 35 33 33 32 32 36 35 32 37 36 40 41 38 37 37 37 37 37 38 39 38 38
44 45 45 44 41 41 41 37 40 41 39 37 38 38 38 37 36 35 33 33 35 37 37 28 36 34 38 39 38 38 37 38 38 38 38 38 38 38
45 44 43 43 39 37 36 36 38 39 37 35 35 34 33 32 33 34 31 30 28 32 36 32 33 32 35 37 41 38 37 37 37 37 37 38 38 37
43 43 36 40 37 35 36 34 33 37 38 37 37 36 35 36 32 34 34 28 28 28 36 29 31 32 28 36 38 38 39 37 37 37 37 37 37 40
40 41 42 36 35 35 34 34 34 38 35 36 36 36 36 36 37 37 37 33 29 30 35 32 30 30 29 30 34 37 38 38 38 39 38 37 37 37
38 41 40 36 35 35 35 33 33 32 34 33 32 32 33 34 36 37 37 36 36 33 34 34 28 28 27 26 28 35 36 37 38 36 37 38 37 37
39 38 36 35 34 34 34 33 32 31 31 30 31 32 34 36 36 34 34 35 34 33 34 34 31 31 29 26 27 31 32 35 37 36 37 37 36 36
34 35 34 34 34 35 34 33 33 33 32 31 32 34 35 32 32 34 31 32 29 30 33 32 32 31 28 31 31 30 33 30 34 35 34 34 34 35
34 34 34 32 31 32 32 33 34 33 31 31 31 31 31 31 31 33 31 30 27 28 29 32 33 32 31 30 28 32 32 33 33 32 33 33 34 33
32 32 32 32 31 32 32 32 32 31 31 30 30 30 30 30 31 31 30 29 27 28 28 30 30 29 31 33 32 29 31 31 33 35 34 32 32 32
31 32 32 32 32 31 31 30 30 33 32 30 30 30 30 30 29 30 29 28 27 28 28 29 28 27 24 24 32 31 29 31 31 33 34 33 31 32
33 33 32 33 34 32 31 30 31 32 30 29 29 30 29 29 29 29 29 27 27 27 27 29 29 28 25 23 24 29 30 29 29 30 31 33 36 32
23 29 33 34 32 32 32 31 30 30 30 29 29 28 28 28 28 30 29 25 23 26 25 27 30 27 29 30 25 28 31 29 30 29 30 30 31 34
20 21 21 31 33 33 32 31 30 30 29 28 28 28 28 28 28 28 28 27 26 27 27 29 30 30 29 28 27 27 30 32 31 29 29 29 28 27
17 18 20 20 24 31 32 31 30 30 29 28 28 27 27 25 28 29 28 27 27 26 26 26 28 29 28 28 26 27 27 29 31 32 31 28 29 29

GFSNE_sfc_temp_048.txt.gz
Temp
53 55 57 59 58 58 57 55 49 42 47 53 53 57 56 55 53 52 50 47 43 42 41 40 41 42 42 43 43 44 45 46 46 47 47 48 49 50
51 52 56 58 57 57 56 55 54 50 45 53 54 55 55 54 53 51 50 46 44 43 41 40 40 40 40 41 41 42 42 43 44 44 45 47 48 49
49 52 53 57 56 56 55 55 53 52 48 51 55 55 52 50 50 51 50 49 49 44 42 40 39 39 39 39 39 40 40 41 42 43 44 45 46 47
50 53 53 57 55 54 55 51 50 52 50 47 51 51 51 51 49 47 48 49 49 46 42 40 39 39 38 38 38 39 39 40 40 41 41 42 44 45
51 52 53 54 53 53 52 49 52 53 50 48 47 51 51 51 48 48 47 47 49 45 42 41 40 39 39 38 38 38 39 39 39 39 40 40 41 42
50 51 53 53 52 52 52 49 49 49 49 48 47 47 48 49 48 44 44 47 46 48 45 42 40 40 39 40 40 39 39 39 39 39 39 39 39 40
50 54 54 51 47 48 53 52 49 47 47 46 45 45 45 45 44 45 42 43 44 46 45 46 46 46 46 44 43 41 40 39 38 38 39 39 39 39
50 52 54 49 46 41 40 40 44 47 45 43 42 40 43 45 45 43 41 39 36 46 43 41 45 44 45 46 42 39 39 39 38 38 39 39 39 39
51 52 52 54 47 50 41 38 37 37 35 43 40 42 42 44 44 41 40 39 38 42 41 37 42 41 45 46 41 39 39 39 38 38 39 38 38 38
51 51 51 51 51 49 48 48 47 48 44 43 43 45 46 46 44 42 40 39 40 42 43 34 41 39 43 44 41 40 39 38 38 38 38 38 38 38
51 51 51 50 45 40 44 44 45 44 43 39 38 37 36 34 35 39 35 35 33 38 42 38 38 37 39 40 43 40 39 39 38 38 38 38 37 37
48 49 42 44 40 37 42 41 39 43 43 43 42 38 36 39 33 37 38 33 34 33 41 36 37 37 32 39 41 42 41 39 39 39 39 39 38 41
44 46 48 39 37 36 37 41 40 43 40 38 41 43 42 42 42 40 40 38 35 35 41 37 35 35 34 33 37 39 40 39 40 40 39 38 38 39
39 43 44 40 38 36 36 37 36 35 36 35 35 37 38 39 42 42 42 42 42 39 40 39 33 33 32 31 32 37 37 39 39 38 39 40 39 39
38 39 36 36 35 34 34 34 33 35 34 33 33 35 37 39 40 39 40 41 40 39 39 38 35 35 34 31 32 34 34 37 39 38 38 38 38 38
36 39 36 34 34 35 35 37 37 35 34 34 34 37 38 36 35 37 34 35 33 35 39 38 36 34 32 34 34 33 35 31 37 37 36 35 38 35
30 33 35 36 37 37 37 35 35 35 33 34 34 33 33 35 33 35 34 34 32 33 35 37 38 37 36 34 30 32 33 34 35 34 35 35 36 34
32 32 32 33 34 37 37 35 34 33 36 35 34 34 33 32 32 34 34 31 32 33 34 36 35 34 35 37 36 33 32 33 35 36 36 33 34 35
30 30 30 31 33 37 38 36 33 33 34 33 33 33 32 32 31 32 32 31 31 33 35 35 33 31 28 26 35 32 31 32 32 33 34 33 32 34
28 27 27 29 30 31 37 37 34 33 31 32 33 33 32 32 31 30 31 30 31 33 33 35 34 33 29 27 26 31 32 30 31 30 31 33 38 35
24 25 25 26 27 25 30 34 32 32 32 31 32 32 31 31 30 31 31 31 31 32 31 32 36 29 33 33 27 29 33 31 30 30 31 31 32 36
22 22 22 23 24 24 24 29 33 32 32 32 31 31 31 31 30 31 31 30 30 31 33 35 35 34 33 31 29 29 32 34 33 31 29 28 29 28
20 20 20 21 22 22 21 23 26 32 33 33 32 32 31 30 31 31 31 31 30 31 32 31 33 34 32 32 30 30 29 31 32 32 32 29 29 29

GFSNE_sfc_temp_051.txt.gz
Temp
48 49 51 53 54 58 58 56 50 43 46 54 54 59 59 59 56 55 53 50 46 44 44 44 43 43 43 43 43 44 45 45 46 46 47 48 49 49
48 47 48 52 56 57 56 56 54 49 46 54 55 56 57 59 56 54 53 49 47 45 44 43 43 42 42 41 41 42 42 43 44 45 45 46 47 48
45 46 48 53 54 55 56 55 54 53 48 52 55 57 55 54 55 54 53 52 51 46 44 43 42 41 41 40 40 40 40 41 42 43 44 44 45 46
47 46 47 52 52 54 54 52 53 53 49 46 52 53 53 54 53 52 52 53 51 49 45 43 42 41 40 40 39 39 40 40 40 41 41 42 43 44
45 46 49 49 49 51 52 52 53 52 51 49 48 53 53 53 51 52 50 50 51 49 45 43 43 42 41 41 40 40 40 40 40 40 40 40 41 41
46 47 48 48 49 50 51 53 53 50 49 48 48 49 50 52 51 48 46 49 48 50 48 45 44 44 43 42 41 40 40 41 41 40 40 39 39 39
45 47 49 49 47 47 52 51 52 50 49 46 45 47 47 48 46 48 45 46 47 47 47 47 47 47 47 45 45 43 41 40 40 40 40 39 39 39
46 48 53 50 50 43 43 42 44 46 47 46 46 43 45 45 46 44 43 41 38 47 44 43 45 44 45 46 43 41 40 40 40 40 39 39 39 39
52 52 53 55 50 54 46 40 39 38 35 43 43 44 43 45 44 42 42 41 40 44 42 38 43 41 45 47 43 41 40 40 39 39 38 38 38 37
52 52 52 52 52 50 50 50 50 49 46 45 44 45 45 47 45 44 42 41 41 42 43 35 42 40 43 44 42 41 40 39 38 38 39 38 38 37
52 52 52 52 47 43 47 46 47 47 48 41 42 41 37 36 37 41 37 35 33 37 42 39 40 38 40 40 43 41 39 38 39 39 39 39 38 38
47 49 43 45 42 40 44 44 41 44 46 47 45 41 38 40 34 38 38 33 34 33 41 37 37 37 32 39 40 41 41 40 39 39 39 40 39 40
38 41 43 40 38 38 37 41 41 44 42 43 43 43 40 41 42 40 40 37 34 35 41 39 36 36 34 34 38 40 40 39 39 39 40 40 39 39
35 38 39 37 36 35 36 36 34 34 36 37 37 36 37 37 39 42 42 41 41 40 42 41 35 34 32 32 32 37 38 39 38 38 38 39 39 39
35 35 33 34 35 36 35 35 33 34 34 32 33 36 39 41 41 38 39 42 42 41 43 41 37 35 34 32 31 33 34 36 38 37 37 37 37 36
33 34 32 31 31 32 34 37 38 36 34 33 35 39 40 38 35 37 36 37 35 35 39 39 39 36 32 33 33 32 34 31 36 36 37 36 37 35
29 32 34 36 36 36 37 38 39 39 34 34 33 35 35 35 34 35 35 35 33 32 33 38 39 38 36 35 31 33 33 33 36 34 35 34 36 35
30 31 31 30 30 31 33 33 34 37 36 34 34 35 35 34 34 34 34 32 32 32 34 36 36 35 35 36 36 32 34 32 34 34 34 32 33 35
29 29 28 27 27 28 29 31 28 32 36 35 33 33 35 35 33 32 31 32 32 33 34 37 35 32 28 27 35 32 31 32 32 31 32 31 31 34
29 27 26 26 25 26 26 26 28 25 34 34 33 34 34 33 32 31 31 31 31 32 33 36 35 34 31 28 28 32 33 31 31 30 30 32 35 33
26 25 25 25 24 24 24 25 23 22 31 32 32 32 32 33 32 32 31 30 31 32 31 33 36 30 35 33 27 30 32 33 33 31 31 29 31 33
23 23 23 23 22 22 23 23 20 22 23 32 32 32 32 33 32 31 31 30 31 32 33 36 37 35 33 31 29 31 32 33 33 32 30 28 29 26
21 21 21 21 22 22 21 21 20 19 23 24 30 33 32 31 32 32 31 31 31 32 32 33 34 35 32 32 31 30 31 31 33 32 32 30 30 30

GFSNE_sfc_temp_054.txt.gz
Temp
47 46 46 46 48 49 49 50 42 33 37 43 45 51 50 48 46 43 43 49 47 45 45 46 47 47 46 45 45 45 45 45 45 46 47 48 48 49
46 45 45 46 47 49 50 47 47 42 35 44 45 46 48 53 49 45 45 50 47 45 44 45 46 45 45 44 44 44 43 43 44 44 45 46 47 47
44 44 44 45 46 48 49 47 44 43 39 40 44 45 44 44 47 45 45 43 42 46 45 44 43 43 43 43 42 42 42 42 42 43 44 44 45 45
44 44 44 48 46 48 47 45 44 44 42 39 41 41 42 44 44 42 46 50 43 48 46 44 43 42 42 42 41 41 41 41 41 41 41 42 43 44
44 44 45 46 44 46 44 44 44 48 45 38 40 40 41 41 40 42 41 40 46 49 46 44 44 43 43 42 42 41 41 41 41 40 40 40 41 41
45 45 45 45 45 45 45 45 45 43 43 41 40 40 38 40 39 37 36 37 38 48 46 44 43 44 44 42 41 42 42 42 41 41 41 40 39 40
44 45 46 46 45 45 47 45 41 39 39 38 38 37 36 35 34 37 37 35 35 38 35 36 36 36 37 41 43 43 42 42 42 41 40 40 39 40
42 44 45 44 44 42 43 42 43 41 38 36 38 38 36 37 35 33 33 30 28 37 33 31 35 33 35 36 42 41 41 40 40 41 40 40 39 39
42 44 46 51 45 45 43 41 39 39 37 40 37 37 37 37 34 32 32 31 32 33 31 28 31 30 35 43 42 42 41 41 40 40 40 39 38 38
43 43 42 43 44 42 40 39 41 43 40 39 36 38 38 37 36 36 33 33 31 32 34 26 30 29 32 33 41 42 41 40 40 39 39 38 38 38
44 42 42 40 40 39 37 35 37 40 45 43 41 40 40 40 38 32 28 28 23 28 31 30 30 27 30 30 31 41 40 39 39 39 39 39 39 38
35 38 38 38 36 37 33 32 31 33 36 37 38 36 36 35 35 35 32 31 28 25 31 30 29 28 22 29 30 31 30 37 39 39 39 39 39 36
30 31 32 35 35 34 34 30 30 34 34 34 34 34 35 34 34 33 33 33 30 30 32 30 25 27 23 24 26 30 29 29 30 32 37 39 39 38
29 30 30 33 33 33 32 33 34 33 33 33 32 33 34 33 35 35 35 33 34 33 34 34 26 27 23 22 24 26 27 30 27 28 29 35 37 38
29 31 31 31 32 31 33 34 32 30 29 29 29 32 35 35 36 33 33 35 34 33 38 37 29 30 25 23 24 26 26 28 29 28 28 30 30 34
28 26 26 29 29 30 31 32 33 33 31 30 31 33 34 34 33 33 31 31 30 30 34 34 32 30 24 26 26 25 26 22 27 30 29 26 33 33
24 25 26 27 26 26 27 27 28 29 28 28 28 31 33 33 32 32 32 31 28 27 28 30 32 32 30 29 25 27 28 26 30 24 27 28 31 32
24 23 21 21 22 23 22 23 24 24 25 26 24 29 32 31 31 32 31 29 27 28 29 29 28 28 28 29 33 28 27 29 25 30 29 26 27 28
20 21 19 19 20 22 22 21 21 22 23 23 23 28 32 31 31 30 30 29 28 28 30 29 28 26 21 18 25 33 23 25 29 29 30 29 27 28
23 21 19 19 20 20 20 20 20 20 20 20 21 28 32 29 29 29 29 28 28 28 29 30 28 28 23 17 15 19 33 20 23 28 28 24 27 32
21 20 18 19 18 19 17 18 19 18 18 18 21 25 30 29 28 26 29 28 28 28 27 28 29 29 27 23 13 15 22 33 30 26 23 20 21 24
17 18 18 18 17 16 16 17 17 16 17 17 19 19 20 29 25 23 26 29 28 28 28 29 29 29 25 25 20 15 23 26 30 32 31 28 20 15
14 17 15 15 15 15 15 14 15 13 15 16 17 16 17 19 28 26 30 28 28 27 28 27 28 29 27 28 23 19 21 19 25 24 22 30 30 30

GFSNE_sfc_temp_057.txt.gz
Temp
46 46 45 46 46 47 47 46 43 38 35 42 43 48 45 44 44 44 41 46 46 46 46 47 48 48 48 48 47 47 47 46 46 46 46 47 48 48
45 45 45 46 46 46 46 46 46 43 38 39 41 43 44 49 45 43 42 46 46 45 45 45 46 47 48 47 47 46 46 46 45 45 45 45 46 47
45 45 45 45 45 45 46 46 46 43 42 37 40 42 40 41 44 41 42 42 43 44 44 44 44 45 45 45 45 45 45 45 45 44 44 44 45 46
44 44 44 47 45 46 46 45 45 44 41 37 37 38 40 41 40 39 44 48 43 45 46 45 44 43 43 43 43 43 43 43 43 43 43 43 43 44
44 44 44 44 43 44 44 43 44 46 42 40 40 37 41 38 39 38 39 39 44 47 45 44 44 43 43 42 42 42 42 42 42 42 41 41 41 42
44 44 44 44 44 44 44 44 44 42 43 41 41 41 36 42 39 40 37 35 39 45 46 43 43 44 44 43 42 42 42 43 42 42 41 40 40 40
43 44 45 45 44 43 44 40 39 38 35 35 36 34 32 32 33 37 34 33 35 35 34 35 38 35 35 41 42 43 43 43 42 43 42 41 40 40
42 42 41 42 42 41 41 40 41 39 36 35 36 36 36 31 32 32 30 32 31 34 34 31 33 32 34 33 40 41 41 41 41 41 41 41 40 39
38 39 40 45 39 38 37 37 37 38 35 37 36 36 35 36 33 31 30 30 31 32 30 28 28 28 32 40 41 41 41 41 41 40 40 40 39 38
37 37 35 35 36 36 33 32 34 35 36 38 37 37 38 38 35 38 36 35 32 32 32 25 27 28 29 31 38 41 41 40 40 40 40 39 39 38
36 35 35 33 35 36 31 28 29 30 37 38 38 38 37 37 38 36 32 28 27 27 29 29 27 27 28 28 30 39 39 39 39 40 40 40 39 38
30 33 34 33 34 34 30 27 26 27 28 29 31 33 35 35 36 35 36 31 29 23 28 29 28 25 22 27 29 28 28 35 37 38 39 39 39 35
27 27 27 32 33 33 33 29 28 31 30 29 30 32 32 33 35 33 34 32 31 30 31 31 24 25 23 23 25 29 27 26 27 30 35 37 37 37
27 26 27 31 32 32 31 33 33 30 29 28 28 28 29 30 33 36 32 33 35 33 33 31 25 25 23 21 23 25 23 25 24 25 27 32 35 35
27 28 29 30 30 28 31 30 27 25 25 25 25 27 29 31 33 34 34 33 32 32 34 32 27 29 26 25 23 23 23 24 24 23 22 26 26 31
26 24 25 26 25 24 25 26 25 24 23 22 22 24 26 27 30 32 32 32 30 28 31 32 31 29 26 28 25 23 22 21 24 23 27 21 23 29
21 20 23 22 22 23 23 23 23 22 21 21 20 21 23 23 25 33 32 32 29 27 27 30 31 31 29 28 22 24 25 23 24 26 25 21 22 24
21 16 10 8 16 19 19 19 19 19 20 20 19 19 20 21 22 31 31 30 28 28 27 29 29 26 27 28 32 27 23 24 24 26 26 21 21 22
17 16 9 9 12 18 18 17 16 18 19 18 17 18 19 19 25 30 30 30 28 26 26 28 27 23 22 20 25 34 25 24 23 22 28 27 19 26
21 17 13 13 16 17 16 15 15 16 16 15 15 16 17 18 19 30 28 28 27 27 27 28 27 26 24 20 17 19 32 18 19 17 23 22 25 30
18 18 14 14 13 14 8 8 9 12 13 12 13 15 15 15 16 25 28 25 23 28 26 26 29 28 28 24 16 13 18 31 28 23 22 19 19 22
11 14 15 14 8 9 4 4 9 10 11 11 12 13 14 14 14 17 23 26 27 27 28 29 29 29 26 26 20 9 18 22 28 32 31 30 21 15
7 10 8 2 4 5 12 8 8 9 9 11 10 11 13 12 13 15 18 23 25 27 28 27 27 28 27 28 24 19 18 15 21 22 20 30 31 31

GFSNE_sfc_temp_060.txt.gz
Temp
49 48 46 46 47 48 48 47 43 39 42 44 44 47 46 44 43 44 42 47 46 46 47 48 50 50 50 50 50 49 49 49 48 48 47 47 47 48
47 46 46 46 46 46 46 46 45 43 39 43 41 42 44 47 44 41 41 45 46 45 45 46 47 48 49 49 49 49 48 48 48 47 47 46 46 47
45 46 45 46 45 45 45 45 44 44 40 44 42 40 39 40 43 41 43 42 42 45 44 45 45 46 46 46 47 47 47 47 47 46 46 46 46 46
45 45 45 46 44 45 44 43 44 44 42 39 41 39 39 42 44 42 45 46 43 45 45 45 45 44 44 44 44 44 44 45 45 45 45 45 45 45
45 44 44 44 43 43 43 42 42 45 43 40 41 44 41 37 37 38 40 40 43 46 45 44 44 44 44 44 44 43 43 43 43 42 43 43 43 43
44 44 45 44 43 43 43 42 43 41 39 38 38 37 35 37 37 38 38 35 39 44 44 44 43 44 44 43 43 43 43 43 43 42 42 41 40 41
43 44 44 44 44 41 41 41 36 35 36 35 35 34 32 30 32 35 33 37 34 34 33 34 37 37 37 42 43 43 42 42 42 43 42 41 41 40
42 43 42 40 39 38 38 38 36 33 34 35 35 34 33 33 32 35 35 29 30 33 32 35 37 36 38 37 40 41 41 42 42 42 42 41 41 40
39 36 38 39 35 34 34 35 34 36 32 31 32 32 32 35 35 34 33 32 33 36 33 30 32 33 34 38 39 40 41 41 41 40 40 40 39 39
34 34 32 32 33 32 30 28 29 29 30 32 28 30 31 33 33 34 33 33 35 35 33 31 28 30 30 32 38 40 40 40 40 40 39 39 39 38
33 33 31 30 34 34 29 27 27 29 35 35 35 35 35 35 35 32 30 30 30 33 29 33 27 26 29 28 30 38 39 39 39 38 39 39 38 38
30 30 32 31 32 33 28 26 25 27 28 29 30 30 32 32 34 32 30 28 28 29 28 30 28 29 27 27 28 28 28 35 37 37 38 38 38 32
27 26 27 31 32 32 32 28 28 28 27 27 28 29 28 29 30 31 33 31 29 29 31 32 29 27 26 24 24 27 27 26 26 28 34 35 36 35
27 27 27 30 31 31 30 31 30 26 24 23 23 23 24 24 26 27 29 33 32 32 34 32 28 25 24 21 21 24 23 24 23 23 24 31 34 35
28 28 29 29 29 28 29 29 25 22 19 18 19 20 21 23 25 26 27 32 33 34 34 33 29 27 26 22 22 22 24 25 23 21 21 23 23 24
26 26 25 26 25 25 26 25 24 22 20 19 19 20 21 21 21 24 22 25 30 32 32 32 30 29 24 26 26 24 24 22 21 22 22 20 21 20
22 21 22 22 22 22 22 22 21 20 18 18 17 17 17 19 19 22 21 23 26 27 26 29 30 30 29 29 23 26 25 22 22 21 24 20 21 22
22 19 15 14 16 19 17 17 17 16 17 17 16 15 16 16 17 19 20 23 28 28 28 28 29 28 27 28 31 25 21 21 22 26 25 18 18 18
19 17 10 11 13 18 17 16 14 15 16 15 13 12 14 16 15 15 18 19 28 27 28 27 28 26 23 18 27 33 23 23 22 20 22 20 16 22
21 18 15 15 16 15 15 14 13 11 10 12 10 10 11 12 13 14 15 14 27 28 27 28 27 27 22 20 20 21 32 19 19 16 18 20 24 29
18 17 16 15 13 13 7 4 -1 -0 5 3 6 9 8 9 11 13 13 15 19 28 26 26 28 30 27 24 17 15 19 30 26 22 21 17 19 20
15 15 15 13 8 8 3 1 -2 -1 4 5 7 4 6 8 10 12 12 12 16 23 28 26 29 28 25 25 20 11 16 17 26 31 30 28 20 16
11 12 9 5 5 5 8 -1 0 -2 6 8 8 6 6 6 10 11 11 13 15 16 26 25 26 27 27 28 23 18 16 13 19 21 20 29 31 31

GFSNE_sfc_temp_063.txt.gz
Temp
52 51 50 48 48 48 48 48 45 39 41 44 45 48 48 43 45 45 45 46 47 47 48 49 51 52 52 52 52 52 52 51 51 50 50 49 49 49
48 48 47 46 47 47 46 46 45 43 39 44 45 45 46 45 45 42 41 46 46 45 45 46 48 49 50 50 50 50 50 50 50 50 50 49 49 48
46 47 45 46 45 45 45 45 44 43 40 43 44 43 42 44 42 40 41 39 39 44 44 45 45 46 47 48 48 48 49 49 49 49 49 49 48 48
45 46 45 47 45 45 44 43 43 43 41 39 42 41 41 39 39 39 44 46 40 45 44 44 45 44 45 45 45 45 46 46 47 47 47 47 47 47
46 45 45 45 43 43 43 42 42 44 41 39 39 40 37 38 37 37 37 39 42 46 44 44 44 44 44 44 44 45 44 45 44 44 44 44 44 45
45 45 45 44 43 43 42 41 42 40 37 35 38 38 36 37 34 33 35 37 37 43 44 43 43 44 43 44 44 44 43 43 42 42 42 41 40 41
43 44 44 44 43 41 42 40 38 37 36 35 35 35 35 36 30 32 33 35 36 33 36 38 37 39 40 43 43 43 41 40 41 43 43 42 41 41
42 42 40 39 38 37 37 37 34 29 28 27 27 27 28 29 29 29 31 32 30 35 32 34 33 35 36 34 40 41 41 41 42 42 42 42 41 40
39 39 38 37 33 32 34 34 33 34 30 28 25 26 25 27 27 27 28 28 27 32 33 31 31 32 36 39 40 40 41 41 41 41 41 40 40 39
34 34 31 30 32 31 29 28 29 29 30 30 27 27 27 28 27 29 28 29 32 34 34 28 33 32 34 36 39 40 40 40 40 40 40 39 39 38
31 30 30 30 33 34 29 28 28 29 34 34 34 35 34 34 34 30 28 28 26 28 30 29 32 31 27 31 33 39 39 39 39 39 39 39 38 37
30 30 32 31 32 32 28 27 26 27 26 27 27 29 31 30 32 30 28 25 26 25 30 25 30 30 27 27 30 31 34 38 38 38 38 38 38 31
28 27 27 31 32 32 31 28 27 26 25 24 24 25 26 26 26 27 27 24 23 23 31 31 27 30 28 27 27 28 29 28 27 29 35 36 36 34
28 27 28 30 31 31 28 29 28 25 21 20 20 21 21 22 23 24 24 25 27 26 29 32 30 29 27 24 23 26 25 23 23 23 23 30 34 34
28 28 29 29 30 28 28 27 25 22 19 17 18 18 20 21 23 23 24 25 25 26 30 33 32 30 28 25 24 22 24 24 23 22 21 22 22 23
27 27 26 27 25 25 25 25 23 21 19 18 17 18 19 18 18 20 19 20 20 21 28 34 33 31 27 27 27 24 23 21 23 22 21 19 20 19
24 24 23 22 21 22 22 21 20 19 18 17 16 16 15 15 16 18 18 18 17 19 23 31 32 31 30 29 23 24 23 22 24 21 24 20 19 21
23 20 16 15 17 19 18 17 18 17 16 16 14 14 12 12 13 15 16 15 16 16 23 28 28 27 27 28 30 25 21 23 24 26 24 21 17 17
20 18 14 14 15 18 17 16 14 15 15 13 12 11 10 12 10 11 13 14 13 17 19 28 27 26 23 21 25 32 23 23 23 20 22 19 15 21
20 18 15 14 15 15 15 14 13 11 9 9 9 7 7 8 7 8 11 11 12 14 17 27 27 27 22 20 22 20 32 21 21 16 17 19 23 29
18 18 16 16 14 14 12 9 5 4 3 -0 0 1 2 3 4 6 9 10 11 14 15 25 28 28 26 25 18 18 18 30 27 22 19 16 17 19
16 16 16 14 12 11 8 4 0 -3 -1 -0 0 -4 -4 2 4 5 7 7 11 13 15 19 28 28 25 24 22 13 16 19 26 31 30 28 19 14
13 13 11 9 9 8 9 2 -1 -6 -0 3 2 3 -0 2 5 7 6 8 11 12 14 17 25 27 26 26 23 18 18 15 19 20 19 29 30 31

GFSNE_sfc_temp_066.txt.gz
Temp
54 54 53 52 51 50 49 49 48 41 42 46 46 49 49 47 47 47 47 48 47 47 47 49 51 53 53 53 53 54 54 54 54 54 53 52 52 51
53 51 50 49 49 48 48 47 47 45 41 45 46 47 48 48 48 46 45 47 46 45 45 46 47 49 50 51 51 52 52 53 53 52 52 52 52 51
50 50 49 48 47 46 46 46 45 44 41 43 45 45 45 45 45 46 44 43 43 44 44 44 45 45 46 47 48 49 49 50 49 49 50 51 50 50
47 47 47 47 46 45 45 44 44 44 42 39 42 43 42 42 42 40 43 45 42 44 44 44 44 44 44 44 44 45 46 47 47 48 49 48 48 49
47 47 46 46 44 44 44 43 43 44 42 39 39 41 40 40 40 39 39 40 42 45 44 43 43 44 44 44 44 44 44 45 45 46 45 44 43 45
46 46 46 45 44 43 43 42 42 40 39 38 38 38 38 40 37 35 35 37 37 42 43 42 42 43 43 44 44 44 44 44 44 44 42 41 39 41
44 45 44 44 43 42 42 40 39 37 37 36 35 33 32 32 32 32 31 33 34 36 37 38 39 39 40 41 42 43 43 43 43 43 39 38 38 41
42 40 40 39 38 37 37 36 36 32 30 29 29 28 29 30 30 29 28 28 27 34 32 32 35 35 37 39 40 40 41 42 41 40 39 41 41 41
39 38 38 37 35 35 34 34 34 34 30 30 27 28 27 29 28 26 27 27 27 32 32 29 34 32 36 38 39 40 40 41 41 40 41 41 40 39
37 36 34 33 33 32 31 30 30 31 31 32 29 29 29 30 30 31 30 30 31 33 34 27 33 31 35 37 38 39 40 40 38 40 41 40 39 38
34 34 33 32 34 34 30 30 29 30 33 33 32 32 33 33 33 29 26 25 23 28 32 29 30 30 33 34 37 37 38 39 36 39 40 39 38 38
32 32 32 31 32 32 29 28 27 27 27 27 28 29 30 30 30 29 27 22 22 23 30 27 29 30 28 35 32 32 34 35 36 39 39 39 38 38
28 27 28 32 32 32 30 29 27 27 26 25 25 26 27 27 27 27 27 23 21 21 28 27 25 25 27 29 32 31 32 33 33 35 38 37 37 37
27 27 28 32 32 30 29 29 27 25 23 22 21 22 22 22 23 24 25 25 26 24 27 26 22 24 25 27 27 30 29 30 31 31 32 32 34 35
27 29 30 31 30 28 28 27 24 22 20 18 18 19 20 22 23 23 24 24 25 25 28 27 25 25 27 29 28 27 28 30 29 31 30 31 31 32
27 27 27 26 25 25 25 25 23 21 19 18 17 18 20 19 18 20 18 19 18 20 26 27 28 27 27 30 28 27 29 29 29 29 29 29 29 29
25 25 23 23 22 22 22 21 21 20 18 17 16 15 16 16 15 17 16 16 15 16 18 23 25 31 32 30 27 28 29 29 30 29 29 28 29 30
24 21 18 18 18 20 18 18 18 17 17 16 14 14 13 12 12 14 14 13 13 15 16 19 20 27 28 29 31 29 28 29 29 30 29 26 27 29
21 19 16 16 16 18 18 17 15 16 16 14 12 11 12 11 11 10 10 11 11 14 16 18 20 24 25 23 28 32 28 27 28 27 28 26 26 29
21 18 16 16 17 16 16 15 14 13 12 11 10 9 8 8 7 7 8 7 9 11 13 18 19 26 26 25 25 28 32 27 27 27 26 26 28 29
19 18 17 17 15 15 13 11 10 9 8 6 5 5 4 5 4 5 5 5 6 9 11 14 19 21 22 27 25 25 27 30 30 28 25 26 26 26
17 17 17 15 13 12 11 9 7 7 6 5 4 2 -0 1 3 3 4 5 7 8 11 16 19 21 24 26 25 23 25 25 28 31 30 30 27 24
14 13 12 11 11 10 10 8 5 2 2 2 2 3 -0 0 4 5 6 7 7 7 10 13 16 19 24 27 26 24 22 22 25 26 28 29 30 31

GFSNE_sfc_temp_072.txt.gz
Temp
69 70 69 69 68 64 61 60 54 48 48 58 59 63 57 61 58 61 62 51 49 47 48 48 49 50 51 51 52 53 54 54 55 56 56 57 57 58
71 70 68 68 65 63 62 58 59 52 50 61 56 54 60 58 54 58 60 50 49 47 46 46 47 48 48 49 49 50 50 51 52 53 53 54 55 56
70 67 64 65 58 58 58 57 54 54 50 49 55 54 54 56 56 60 59 58 59 46 45 45 45 45 45 45 46 47 47 48 48 49 50 51 52 53
67 63 58 57 56 55 53 51 50 53 51 47 48 52 52 56 58 55 54 60 60 51 46 45 44 44 44 44 44 44 44 45 45 45 46 47 48 49
62 57 56 56 53 50 50 49 49 49 49 48 47 52 55 50 49 50 54 55 58 50 45 44 44 44 44 43 43 43 43 43 43 42 43 43 44 45
57 57 56 55 54 49 48 48 47 47 48 51 52 45 48 48 50 51 52 55 54 56 51 46 44 46 44 43 42 43 42 43 43 42 41 41 40 41
53 53 53 51 47 48 49 48 47 45 45 49 43 44 43 44 45 53 50 51 52 53 52 51 52 52 51 47 46 44 43 42 41 41 41 41 40 41
49 47 47 45 44 41 41 42 45 43 43 42 42 41 44 47 49 48 47 45 44 55 48 47 50 49 51 51 45 42 41 41 41 40 40 40 40 40
46 43 40 39 39 38 35 35 35 35 36 44 43 43 44 46 47 45 44 44 44 48 47 42 48 46 51 51 43 42 41 41 40 40 40 39 39 38
42 40 37 36 36 36 35 34 35 37 40 42 43 43 44 47 45 45 44 43 44 46 47 38 46 45 47 49 43 42 41 40 40 39 39 38 38 38
37 37 36 34 34 36 34 33 34 34 34 34 33 33 33 33 35 42 38 38 35 41 46 41 43 42 43 44 47 43 40 40 39 39 38 38 38 38
33 33 34 34 32 35 35 34 34 35 36 36 38 33 34 36 31 37 39 34 35 36 45 37 39 40 36 43 43 43 45 41 40 40 38 38 38 40
30 30 31 31 32 34 37 38 36 38 33 40 39 40 40 39 39 40 38 36 33 34 40 36 35 35 34 35 40 41 42 43 43 42 38 38 39 39
29 30 31 31 31 32 31 30 30 33 35 34 35 36 36 36 37 37 37 36 37 34 36 34 30 32 31 31 32 39 41 43 43 40 40 38 35 37
31 31 30 30 30 30 29 28 30 32 31 32 32 34 35 35 34 33 34 34 34 34 34 33 32 32 32 31 31 33 33 38 41 40 41 38 40 43
30 30 31 32 32 29 28 30 32 31 30 30 29 32 32 31 29 31 29 29 28 29 34 34 33 31 29 31 31 30 33 31 40 40 40 39 40 41
31 31 31 30 30 32 31 30 31 30 29 29 27 27 27 27 27 29 27 26 25 26 28 32 34 34 33 32 29 31 32 33 38 39 39 36 38 39
31 29 29 28 28 29 29 27 28 25 27 26 25 25 24 24 25 26 26 25 24 25 26 29 30 29 31 34 35 33 35 36 38 40 38 34 36 39
29 28 27 27 27 28 28 27 25 24 23 24 23 23 22 23 22 23 23 24 23 25 27 28 27 26 24 23 33 35 32 35 36 34 37 36 35 38
26 26 25 25 25 25 25 25 25 24 23 22 21 20 20 20 20 21 22 21 22 23 23 26 27 27 24 21 21 27 30 28 33 34 35 38 39 32
27 26 26 25 25 24 23 22 21 20 19 19 19 19 19 19 18 19 20 18 18 20 20 23 26 26 27 27 21 25 32 34 31 34 36 34 35 36
25 24 24 23 22 22 21 20 20 20 19 19 18 17 17 18 17 17 17 17 18 19 20 23 26 26 25 23 21 23 27 29 32 32 32 32 36 30
21 22 21 20 20 20 20 19 18 17 17 16 16 16 16 15 16 16 16 17 17 17 18 18 21 23 23 23 22 22 24 24 32 33 34 32 32 32

GFSNE_sfc_temp_075.txt.gz
Temp
65 68 69 70 69 70 69 65 61 55 56 61 59 62 66 67 59 62 61 51 50 49 49 50 51 51 52 52 52 53 53 54 54 55 55 55 56 56
68 68 69 70 69 69 68 64 63 57 53 62 61 61 64 65 57 59 61 52 49 47 47 47 47 48 49 49 49 50 50 51 51 52 52 52 53 54
68 69 69 70 68 68 64 62 61 57 52 53 52 54 55 57 56 58 59 59 58 47 46 46 45 45 45 46 46 47 47 47 48 48 49 50 50 51
70 70 69 68 66 66 61 57 56 54 52 51 47 49 49 54 54 53 59 62 61 51 47 46 45 45 44 44 44 44 44 44 44 45 45 46 46 47
70 69 69 68 63 59 56 54 55 53 52 50 46 48 48 50 52 52 51 52 57 50 45 45 45 45 45 44 43 43 43 43 43 43 42 43 43 43
69 68 68 62 58 57 54 53 52 49 48 47 46 46 47 49 47 49 49 51 51 58 54 49 47 46 45 44 43 43 43 43 43 43 42 41 40 41
62 60 59 56 51 54 54 52 50 49 46 46 43 44 44 44 44 48 46 48 51 54 53 54 53 53 51 45 45 44 43 43 42 43 42 41 40 40
58 61 58 49 48 44 44 44 48 47 45 44 43 41 42 44 45 46 46 44 43 55 51 49 52 50 51 52 47 43 43 42 42 42 42 41 40 40
59 54 47 45 45 41 38 36 36 36 37 42 40 39 40 43 45 44 41 43 44 50 49 44 48 46 49 52 45 43 42 42 42 41 41 40 40 39
52 47 42 39 39 38 36 34 34 33 34 39 38 37 36 43 45 45 45 45 46 47 47 39 46 44 48 49 45 43 42 41 41 40 40 40 39 38
38 38 38 36 36 38 35 33 32 31 32 32 33 34 34 35 35 44 39 39 37 41 45 42 43 42 44 43 45 43 41 41 40 40 40 39 39 38
34 34 35 34 33 35 34 32 29 30 32 31 32 34 35 33 33 38 40 36 36 36 42 39 39 39 35 42 43 43 43 41 40 41 41 39 39 38
31 31 32 33 33 34 33 32 30 31 30 34 35 38 39 40 40 38 40 37 33 34 40 36 34 34 33 34 38 40 40 40 42 43 42 39 39 38
29 30 31 32 31 31 29 30 31 31 32 34 35 36 36 37 38 39 39 38 38 35 37 35 31 31 30 29 30 37 38 39 40 40 41 40 36 37
31 30 31 30 29 28 28 28 30 30 31 31 31 33 35 36 35 35 35 36 35 35 36 35 32 31 31 29 29 32 33 36 38 37 39 39 38 40
29 29 29 29 29 27 28 29 30 30 30 30 30 32 33 32 31 32 30 30 27 29 34 34 34 32 29 30 30 30 33 31 36 36 38 37 39 40
29 29 28 28 29 29 28 28 28 29 28 29 28 28 29 29 28 29 28 27 24 25 28 32 34 34 33 31 28 31 31 33 36 35 36 34 38 38
30 29 29 30 29 28 28 28 29 27 29 27 27 26 25 25 25 26 26 24 23 25 26 29 30 29 30 33 34 31 33 33 34 34 36 33 35 38
30 29 29 28 28 28 28 27 26 26 25 26 25 24 24 23 22 22 23 23 23 24 25 28 27 25 22 20 31 35 29 29 29 28 29 34 34 37
29 28 27 27 28 27 27 26 26 25 24 23 22 22 21 21 20 20 21 20 21 21 22 25 25 26 21 18 19 25 30 26 26 26 27 33 37 33
27 26 26 26 25 25 24 24 23 22 22 21 21 21 20 19 18 19 19 18 18 19 18 20 24 26 27 27 21 23 29 33 32 28 28 26 31 33
24 24 24 24 22 23 22 22 22 21 21 20 19 19 18 18 16 16 17 16 17 17 18 22 24 24 23 21 20 21 25 29 31 31 29 29 32 29
21 22 22 21 22 21 21 20 19 18 18 18 17 17 16 15 16 16 16 16 16 16 17 17 19 21 20 21 20 21 22 24 26 24 28 30 32 32

GFSNE_sfc_temp_078.txt.gz
Temp
61 60 61 62 61 63 59 57 55 49 50 52 54 58 58 59 56 56 55 50 49 49 49 50 52 52 52 53 53 54 54 54 55 55 55 55 55 56
63 61 61 61 62 61 59 58 58 56 53 55 54 55 57 60 54 54 55 50 48 48 48 48 49 50 50 50 50 50 51 51 52 52 52 52 53 53
61 61 62 62 62 61 59 59 58 57 54 56 54 54 52 53 52 53 51 51 48 47 47 46 46 46 47 47 47 47 48 48 48 48 49 49 50 50
62 61 61 62 61 61 60 59 58 58 56 54 51 50 50 52 50 50 54 57 55 49 47 46 45 45 45 44 44 44 45 45 45 45 45 46 46 47
63 62 62 61 60 60 60 58 58 55 55 54 52 49 49 49 48 49 49 49 54 49 47 45 44 44 44 44 44 44 44 44 43 43 43 43 43 44
63 63 63 62 61 61 59 57 55 54 54 53 53 48 47 46 48 46 44 46 48 54 50 47 45 45 45 44 43 44 44 44 44 43 42 41 40 41
63 63 63 62 55 57 59 56 55 53 53 51 50 44 43 41 43 45 43 42 44 46 46 47 42 41 41 43 45 44 44 43 43 43 43 42 41 41
62 62 56 50 49 45 47 47 52 53 52 49 48 45 45 45 43 40 38 37 35 45 42 41 44 40 43 43 45 43 43 43 42 42 42 42 41 40
57 57 53 51 47 51 38 38 36 36 34 47 45 39 37 39 38 35 34 33 33 39 41 35 38 35 42 48 45 43 44 42 42 41 41 41 40 39
54 55 55 46 42 39 36 34 34 34 34 37 35 33 35 36 36 35 34 34 37 39 41 29 35 34 39 40 43 43 42 41 41 41 41 40 39 39
39 39 39 37 37 39 36 33 30 30 33 34 34 34 33 32 33 34 31 32 31 33 37 34 34 34 35 33 37 43 41 41 41 41 41 41 40 39
34 34 35 35 35 36 35 33 30 28 30 29 30 31 32 33 32 32 32 30 30 29 33 30 32 31 28 33 33 32 33 38 39 40 41 40 40 34
32 31 32 34 34 34 33 32 30 31 30 31 31 30 31 31 31 31 32 30 28 28 33 30 27 27 27 27 30 30 31 33 34 35 38 39 40 37
30 31 32 33 33 32 31 31 31 30 30 29 30 29 30 30 32 32 32 32 33 32 33 31 25 25 24 23 23 29 30 31 32 32 32 36 38 38
31 31 32 31 30 30 31 30 30 29 29 28 27 28 29 30 32 31 32 33 32 31 34 30 27 28 26 23 23 25 26 29 31 30 30 31 31 34
29 28 27 27 28 28 28 28 27 27 27 26 26 26 28 27 27 28 27 27 24 24 29 29 29 27 24 26 25 24 26 24 29 29 30 31 32 35
28 27 26 27 27 26 26 27 27 27 25 25 24 25 25 26 25 24 23 22 19 21 23 27 29 29 28 27 23 25 25 26 28 28 29 28 30 33
28 27 27 27 26 26 25 25 24 23 23 25 23 23 22 21 21 21 21 18 19 20 21 24 24 24 24 26 30 25 26 25 25 26 26 24 25 30
28 27 25 25 24 24 23 23 21 22 25 22 21 20 19 20 19 19 19 19 18 20 21 22 21 19 15 13 23 29 21 22 22 21 23 23 23 27
25 24 23 23 23 22 22 21 21 21 20 19 17 16 14 16 15 16 16 12 15 16 17 20 20 20 15 13 14 19 29 21 20 20 21 25 28 31
22 22 21 21 21 21 20 20 19 18 16 15 16 15 10 11 9 11 10 10 11 15 14 15 19 21 21 20 13 15 20 28 28 24 23 22 21 24
20 19 19 20 19 20 19 17 17 16 15 14 10 7 7 8 7 7 7 7 12 13 14 17 20 20 18 17 14 14 17 20 26 28 30 28 23 19
18 19 18 17 17 16 16 15 13 11 12 12 10 11 5 5 9 8 7 10 12 12 13 13 15 17 16 16 15 14 15 17 20 21 23 29 27 29

GFSNE_sfc_temp_081.txt.gz
Temp
59 57 59 59 58 59 57 57 55 51 52 52 53 55 56 54 55 55 55 55 51 50 50 51 53 54 54 55 55 56 56 56 56 56 56 56 56 56
59 58 58 60 60 59 59 59 58 56 53 52 54 56 55 57 56 55 55 53 49 48 48 49 50 51 51 52 52 52 53 53 53 53 53 53 53 54
61 59 59 60 59 59 59 59 58 57 55 58 55 54 51 55 56 55 55 53 50 47 47 47 47 47 48 48 49 49 49 49 50 50 50 50 51 51
60 59 58 59 57 58 58 59 59 59 57 54 57 49 51 52 54 52 53 55 52 47 46 46 46 45 45 45 45 45 46 46 46 46 47 47 48 48
61 60 59 59 57 58 58 58 59 58 58 56 56 51 53 48 48 48 50 51 52 50 45 45 44 44 44 44 44 44 44 44 44 44 44 44 44 45
60 60 60 58 58 58 58 58 58 57 56 55 55 53 48 47 49 48 44 46 47 52 49 46 44 44 44 44 43 44 44 44 44 43 42 41 41 42
59 60 60 59 54 56 58 58 58 56 55 54 53 52 44 42 45 47 46 46 43 44 43 43 42 43 43 44 44 44 44 44 44 44 43 42 41 41
58 60 60 52 52 48 48 49 52 56 54 54 54 51 49 47 47 45 41 37 36 41 38 38 41 39 40 42 43 42 42 43 43 43 43 42 42 40
59 59 58 57 50 55 41 39 37 38 35 50 52 52 43 41 39 35 34 34 33 36 36 33 35 35 41 46 44 44 42 42 42 42 42 41 40 39
59 58 56 51 48 43 38 35 34 34 35 37 38 36 36 38 38 37 36 34 34 35 35 31 33 33 37 39 42 43 42 42 42 41 40 40 40 39
44 43 51 45 39 40 37 33 31 31 35 35 35 35 35 36 36 36 32 32 30 31 31 31 32 32 33 34 37 41 39 40 40 40 40 40 40 39
35 35 36 38 36 37 35 33 30 29 30 30 30 31 32 32 32 33 32 30 29 28 30 29 30 30 28 31 31 32 32 35 37 38 39 39 39 34
33 32 33 35 36 35 35 34 31 30 29 30 30 30 31 31 31 30 30 30 28 27 31 29 27 28 26 25 28 29 29 28 29 31 34 36 37 37
31 32 33 33 33 32 31 32 31 31 30 29 28 28 27 27 29 31 31 31 32 30 32 30 24 24 22 22 23 27 27 27 26 28 29 32 34 35
32 32 32 32 31 31 31 31 30 29 28 27 26 25 26 27 28 28 29 30 30 30 32 30 27 27 24 23 22 24 24 27 28 26 25 27 27 29
28 28 28 27 27 27 27 28 28 27 26 25 25 26 26 26 25 27 25 26 25 25 30 29 28 26 24 25 24 22 24 21 25 26 26 27 28 28
28 28 26 26 25 25 26 26 25 25 24 24 24 23 23 23 23 24 24 23 20 21 23 26 28 27 26 26 22 24 23 23 23 23 24 22 24 26
28 26 25 24 24 23 22 21 22 23 23 23 22 22 21 20 21 22 22 20 18 19 20 21 21 20 22 24 27 21 21 20 22 23 24 20 20 23
25 23 23 22 22 22 22 21 20 21 22 21 20 19 20 20 19 18 18 17 16 17 18 19 18 16 13 10 18 26 18 19 20 19 21 20 19 22
23 22 21 21 21 20 20 20 19 19 19 19 17 16 15 15 15 14 14 10 12 14 15 18 17 16 12 9 11 15 25 18 17 17 19 21 24 28
20 19 19 19 19 19 18 18 17 16 15 14 12 12 8 9 6 8 7 7 9 13 12 13 16 19 19 18 9 11 17 24 23 19 19 17 17 19
18 17 17 17 16 16 15 15 14 13 13 12 8 6 5 8 6 6 6 5 10 10 12 14 17 17 15 13 10 10 13 17 22 24 26 24 19 15
14 14 13 13 13 13 13 12 11 10 10 9 7 4 -1 0 6 4 2 6 8 8 10 10 12 13 13 13 11 11 11 12 16 17 19 26 27 27

GFSNE_sfc_temp_087.txt.gz
Temp
59 58 59 59 57 57 57 56 55 50 50 53 53 56 58 59 58 57 57 55 51 50 51 52 54 55 56 57 58 59 60 61 61 61 61 62 62 61
61 58 58 60 58 59 57 57 55 55 52 57 56 57 57 57 58 57 55 53 50 49 48 50 51 52 53 54 54 55 56 57 58 58 58 58 59 58
61 59 59 61 59 58 58 58 56 56 53 58 59 56 54 56 57 56 57 56 58 49 48 48 48 48 49 50 51 52 53 54 55 54 54 55 56 56
60 59 59 60 58 59 59 58 58 59 57 55 59 57 54 56 59 57 56 57 58 54 49 48 47 47 47 47 47 48 48 48 49 50 50 52 53 53
59 58 58 57 56 57 57 57 56 57 57 55 56 58 57 54 53 54 55 56 56 53 48 46 46 46 46 45 45 45 45 45 45 45 45 45 46 48
57 58 58 57 56 57 55 55 56 55 56 55 55 56 57 56 51 52 51 50 53 54 49 47 45 45 45 44 44 44 44 44 43 43 42 41 42 43
58 57 57 57 53 55 58 57 55 55 55 55 54 55 55 51 50 55 52 54 53 51 49 47 45 44 44 43 44 43 43 42 43 42 42 41 40 41
55 57 57 51 51 46 47 49 55 55 53 54 54 53 54 55 54 53 53 49 46 44 45 41 42 41 43 43 42 40 40 40 41 41 41 41 41 40
56 56 56 56 50 55 47 44 44 44 47 56 54 54 54 56 56 52 52 52 50 39 38 33 36 36 39 40 40 40 39 39 40 40 40 41 40 40
57 57 56 56 55 53 52 51 48 51 48 48 51 55 56 50 50 52 53 41 34 34 36 32 33 32 35 37 39 39 38 39 38 39 40 39 39 38
58 58 57 56 52 46 51 50 48 34 36 37 36 35 35 36 39 39 35 36 31 30 30 32 31 31 32 32 34 35 35 36 37 37 37 37 37 37
55 55 47 53 47 43 49 51 47 36 32 30 30 30 30 31 31 32 35 36 29 26 27 28 28 29 27 29 29 29 31 34 34 35 35 35 35 30
51 48 34 35 35 36 40 50 45 32 30 29 28 28 29 29 29 29 29 30 25 24 28 28 26 26 26 25 27 28 29 29 29 30 32 33 33 33
33 32 32 34 33 33 33 33 32 30 29 28 27 26 26 25 26 27 27 27 27 26 27 27 25 25 23 22 22 27 28 28 28 28 28 30 31 31
31 31 31 31 31 30 30 30 29 28 26 25 23 23 24 25 26 26 27 26 26 26 27 27 26 25 24 23 22 24 24 27 28 26 26 25 24 25
29 28 28 27 27 27 27 27 27 26 25 23 22 23 23 22 22 23 22 23 22 23 24 25 24 24 22 23 23 22 23 21 23 23 23 23 23 23
26 26 24 23 23 23 23 23 23 23 22 22 21 20 20 20 19 21 21 20 18 18 18 22 25 25 25 24 20 19 19 19 21 20 20 18 20 21
24 21 21 21 20 19 19 19 20 20 20 20 20 19 19 18 17 18 19 18 16 16 16 18 18 18 19 20 24 17 17 16 18 19 19 16 16 18
20 19 19 19 18 18 18 18 17 18 19 18 17 17 17 17 16 15 15 16 15 15 16 17 16 14 9 6 15 23 14 16 16 14 16 15 13 16
18 17 16 17 17 17 17 16 16 15 15 15 14 14 14 14 13 13 13 12 12 13 13 14 14 13 9 2 5 12 21 13 12 11 12 15 18 22
15 15 15 15 15 15 14 13 12 11 11 10 10 11 10 11 10 10 10 10 10 11 9 10 13 16 16 13 -1 3 12 20 19 15 14 12 12 14
12 12 12 12 12 13 12 12 11 10 9 9 6 6 7 8 6 6 6 6 8 7 9 11 14 13 11 10 6 4 9 12 17 20 21 20 14 9
7 8 7 8 9 8 8 5 5 3 5 4 5 3 -1 1 3 3 3 5 6 6 7 7 8 10 9 9 7 7 7 8 11 11 14 21 22 23

GFSNE_sfc_temp_090.txt.gz
Temp
57 56 57 57 57 59 57 57 56 51 53 55 55 57 60 60 58 59 59 56 50 50 51 52 54 55 56 56 57 59 60 61 62 62 62 62 62 62
59 57 56 58 57 57 56 56 58 59 55 58 56 57 57 58 59 59 59 55 51 49 49 49 50 52 53 54 54 55 56 57 59 60 60 60 61 61
59 58 58 59 58 58 58 58 57 57 56 59 57 57 55 57 58 58 59 57 58 48 48 49 48 49 50 50 51 52 53 54 55 56 57 58 59 60
58 58 58 60 58 59 59 58 59 59 57 55 59 58 55 59 60 59 57 59 59 54 49 48 48 48 47 47 48 48 49 50 51 52 53 55 56 56
58 58 58 58 57 58 58 58 58 58 57 56 57 60 59 54 56 56 58 59 57 55 50 48 47 47 47 46 46 47 47 47 47 48 47 47 49 50
57 58 59 58 57 58 56 56 57 57 56 55 55 56 57 57 55 55 55 53 56 57 52 50 50 48 46 46 45 45 46 46 45 44 43 42 42 43
57 57 57 57 52 55 58 57 56 54 55 54 54 54 54 55 52 55 52 55 56 54 55 53 50 50 49 45 46 45 45 44 44 43 42 41 40 40
56 57 58 50 51 46 46 48 57 55 54 54 54 54 56 57 57 56 54 52 50 54 51 52 47 48 47 46 44 43 42 42 41 41 41 40 40 39
56 56 56 57 50 55 47 43 44 44 46 57 54 54 55 57 57 55 54 53 52 54 46 42 38 37 40 42 41 40 40 40 40 40 40 39 39 39
57 57 56 57 57 55 54 53 49 51 50 50 53 56 57 58 56 55 54 52 38 34 38 37 34 32 36 38 40 40 39 39 38 38 38 37 36 36
57 57 57 56 52 47 52 51 50 48 37 39 37 35 35 35 36 45 41 37 33 31 29 32 31 31 31 31 33 34 34 34 33 33 33 32 32 33
54 54 43 38 35 39 49 51 49 48 33 30 30 30 31 31 31 30 34 42 33 28 27 29 28 29 26 28 27 28 29 30 31 31 31 31 31 30
33 32 33 34 35 36 35 37 37 32 30 29 28 28 28 27 27 28 28 29 26 23 27 29 26 27 26 25 27 27 28 27 28 28 29 29 30 30
30 30 31 33 33 33 32 32 32 30 28 26 25 25 25 25 25 26 26 26 26 25 27 28 25 25 24 23 23 27 27 27 27 27 27 28 28 29
29 29 29 29 29 28 29 29 29 28 26 23 22 21 23 24 25 25 26 24 23 23 23 23 25 25 25 23 22 23 23 25 25 23 24 25 25 27
27 26 26 26 25 24 24 25 24 23 22 21 20 21 22 21 21 23 23 22 19 19 22 23 23 23 21 22 22 21 22 20 23 23 23 23 24 25
24 23 22 22 21 21 21 21 22 22 21 21 20 19 19 19 19 21 20 19 17 17 17 21 25 25 23 23 20 20 20 20 21 20 21 20 22 23
21 19 18 18 18 18 18 18 18 18 19 20 19 18 17 17 17 18 19 17 16 16 15 18 18 18 20 21 23 18 18 17 19 20 20 16 16 20
17 16 16 16 16 16 16 16 15 16 18 17 17 17 17 16 16 15 16 16 15 15 15 16 15 13 10 8 16 23 15 16 16 15 16 16 15 18
15 14 14 14 15 15 15 14 14 14 14 14 13 14 14 14 13 13 13 13 13 14 13 14 13 12 10 8 9 14 20 15 14 14 14 17 19 21
12 12 13 13 13 14 13 12 12 11 11 11 11 11 11 12 11 11 11 10 11 12 10 10 13 16 16 15 8 9 14 19 19 16 16 14 14 16
8 9 9 10 10 11 9 10 9 9 9 9 7 7 9 9 8 8 9 8 9 9 10 11 14 14 12 11 8 8 11 14 17 20 20 19 14 10
3 5 5 6 7 6 6 4 3 2 4 4 5 4 1 4 6 6 7 8 8 7 8 8 10 11 10 10 9 8 8 10 13 13 16 21 23 24

GFSNE_sfc_temp_093.txt.gz
Temp
60 59 62 64 66 67 64 65 62 57 61 64 62 62 61 62 62 63 62 58 51 50 51 52 54 55 56 56 57 59 60 61 62 62 63 63 63 64
60 59 62 64 61 63 61 58 59 60 59 67 66 65 60 59 59 59 60 56 52 49 49 50 51 52 53 54 55 55 56 57 59 60 60 61 62 62
61 59 59 59 58 57 57 57 57 58 54 59 64 69 64 64 66 63 62 62 62 51 49 49 48 49 49 50 51 52 53 54 55 56 57 59 60 61
62 62 60 61 58 59 58 58 62 64 58 55 60 67 64 66 60 60 60 61 62 58 51 49 49 48 48 48 48 49 49 50 51 52 53 55 57 58
62 62 64 65 64 65 65 64 62 61 60 59 62 68 69 68 66 61 61 62 65 60 52 49 49 49 49 48 47 47 48 48 48 48 48 50 51 53
64 65 66 65 65 66 65 65 65 64 62 59 59 63 65 68 67 64 64 66 65 68 61 55 54 50 48 48 46 46 47 47 47 46 46 45 44 47
61 62 62 62 55 60 66 65 64 61 60 59 57 61 62 62 61 64 61 63 65 67 66 66 64 62 60 48 50 46 46 45 46 46 46 44 43 43
62 63 63 53 54 47 47 49 60 62 59 58 57 56 57 59 60 59 59 57 53 62 61 61 64 62 61 61 48 44 43 44 44 44 43 41 40 39
58 59 59 60 53 62 49 44 45 45 47 59 56 55 55 57 58 57 56 55 54 59 56 54 44 41 40 41 41 42 42 41 40 40 39 39 38 38
58 58 58 58 58 56 56 55 54 55 52 51 53 56 54 47 47 52 54 55 55 40 39 46 35 32 34 34 38 38 38 37 37 36 35 35 34 33
55 49 39 42 37 40 49 52 51 51 36 39 35 33 33 33 34 39 42 39 45 33 30 33 32 29 28 28 32 34 34 34 34 34 34 33 33 32
36 35 33 35 35 36 41 43 45 44 33 32 30 30 31 30 30 30 32 34 35 32 28 30 29 30 25 28 28 29 30 32 32 32 32 32 32 32
31 30 31 33 33 33 34 34 34 33 31 29 28 27 27 27 26 26 26 28 27 24 27 29 29 28 28 26 29 29 30 30 31 31 31 31 30 31
29 29 30 31 31 30 30 30 30 29 28 25 26 23 24 24 24 25 25 25 25 24 26 29 26 28 27 26 26 29 28 29 29 28 29 28 27 27
30 29 29 29 29 29 28 28 27 26 25 22 22 22 25 26 28 29 27 26 25 25 26 26 27 27 27 26 25 25 27 26 26 26 27 28 27 30
30 29 29 28 27 28 29 29 29 29 27 26 26 26 28 25 26 28 26 26 24 22 24 26 26 26 24 24 25 22 24 23 27 26 26 26 27 28
29 29 28 28 26 27 26 26 28 28 26 26 26 26 25 25 24 26 26 25 22 22 22 25 27 27 26 25 21 22 22 23 25 24 24 23 26 27
27 25 24 24 23 24 24 24 24 24 25 26 25 24 24 23 24 24 25 23 21 22 22 23 24 24 24 24 25 21 22 21 23 23 23 21 22 26
24 23 22 22 22 23 23 22 21 22 23 24 23 23 23 22 23 22 22 22 20 21 21 22 22 20 18 16 22 23 19 21 21 21 23 23 22 24
22 21 20 21 21 21 21 21 21 21 21 21 20 20 21 21 20 19 20 19 19 19 19 21 19 18 16 14 15 21 21 19 20 20 21 24 26 26
19 19 19 20 20 20 19 18 18 17 17 17 18 18 18 19 17 18 17 15 17 18 16 17 18 18 22 22 18 19 22 22 21 19 21 20 21 25
17 17 17 17 17 17 16 17 16 16 16 16 15 15 16 17 15 15 16 16 16 16 16 19 20 20 20 18 16 16 19 21 24 24 23 21 19 18
13 14 14 14 15 14 14 14 13 13 13 14 14 14 13 13 15 15 15 15 15 15 15 15 18 19 17 17 15 17 17 19 22 22 25 25 24 24

GFSNE_sfc_temp_096.txt.gz
Temp
64 68 69 68 69 72 72 72 68 61 65 69 69 70 73 74 68 69 68 60 52 50 50 51 54 55 56 56 57 58 60 61 61 62 63 63 64 64
62 66 68 69 68 68 69 70 66 65 61 71 70 74 73 73 69 70 71 59 53 50 49 49 50 52 53 54 54 55 56 57 58 59 60 61 62 63
65 61 63 68 64 65 62 63 61 57 55 59 68 68 70 73 73 73 69 66 62 50 49 48 48 49 50 50 51 52 53 54 55 56 57 58 60 61
67 61 61 64 63 60 61 63 60 58 56 54 59 65 71 72 70 69 75 77 76 64 52 50 50 49 49 49 48 49 50 50 51 52 54 55 56 58
63 61 63 62 62 62 60 59 60 63 63 62 65 68 70 73 72 72 72 72 75 62 51 49 49 50 49 49 48 48 48 48 48 48 48 49 51 53
63 62 62 62 63 65 67 68 68 68 67 63 67 68 69 72 71 70 69 72 72 74 66 61 58 53 49 49 48 48 48 49 48 47 46 45 45 47
62 63 63 61 56 59 67 68 68 66 65 63 62 65 67 68 67 70 67 70 70 70 68 70 70 72 68 50 53 48 47 47 46 46 46 45 43 44
64 67 68 56 56 47 47 48 58 63 61 60 61 59 63 66 67 67 66 60 56 65 62 63 71 69 55 43 41 42 43 44 44 44 44 44 43 40
64 64 63 63 54 64 50 45 45 44 43 59 58 58 58 59 59 58 59 59 58 63 58 56 43 34 35 37 39 40 40 40 40 40 40 39 38 38
50 43 45 47 43 41 51 56 54 53 52 51 52 47 37 36 38 43 43 45 47 36 38 38 33 29 31 33 35 37 36 36 36 36 36 35 35 34
37 36 37 37 35 36 43 47 49 44 35 35 34 33 32 32 33 40 39 36 41 35 34 35 32 29 29 28 31 34 35 35 35 34 34 34 33 33
33 33 32 33 33 34 38 40 40 34 33 31 29 29 28 28 29 29 29 33 36 34 28 31 32 30 25 28 30 32 32 32 33 33 33 33 33 34
32 31 32 32 32 32 32 32 31 30 28 28 27 27 27 26 27 28 28 28 28 24 29 31 31 31 29 28 31 32 32 32 32 32 31 30 30 30
31 32 32 32 32 31 31 31 30 30 29 28 27 26 27 27 28 28 29 30 31 29 31 32 32 33 31 30 29 31 32 31 32 30 30 30 29 28
32 31 31 32 32 31 31 32 32 32 30 29 27 27 29 31 32 32 31 31 30 29 30 31 32 33 34 32 31 31 32 32 33 32 31 31 31 32
32 32 32 31 31 31 32 32 32 31 31 30 29 30 31 31 30 32 31 32 32 31 31 32 33 33 31 31 32 31 33 29 33 32 31 30 31 31
32 32 32 31 31 30 30 30 30 30 29 30 30 30 30 31 30 32 32 32 30 31 31 33 34 33 32 31 29 31 31 31 32 30 30 29 31 32
31 30 28 28 28 28 28 28 29 28 29 30 30 30 29 29 30 31 31 30 29 29 29 31 31 32 32 29 27 28 30 29 30 30 30 27 28 32
29 28 27 27 27 28 28 28 27 27 28 29 28 28 28 28 28 28 28 28 27 28 29 29 28 27 26 24 29 24 24 26 27 27 29 28 27 30
28 26 26 27 27 27 27 27 27 27 26 27 26 26 26 26 25 25 26 25 26 26 26 27 25 23 22 20 21 26 25 23 24 24 26 29 31 30
26 26 26 26 26 26 25 24 23 22 23 23 24 23 23 24 23 24 23 20 22 24 22 23 24 21 27 27 23 24 27 27 25 23 24 23 25 29
24 24 24 23 23 23 23 23 23 22 22 23 21 22 22 23 22 22 21 22 22 23 23 25 26 26 25 23 21 22 25 27 30 29 27 25 23 22
21 22 21 21 22 21 22 21 20 20 19 20 20 21 20 21 22 22 22 22 20 21 22 22 24 26 24 23 22 24 23 25 27 28 29 25 26 25

GFSNE_sfc_temp_099.txt.gz
Temp
60 62 63 65 65 70 69 73 68 62 66 70 69 73 74 74 70 72 71 61 52 51 51 52 54 55 56 56 57 58 59 60 61 62 62 63 64 64
59 64 65 67 66 65 67 68 70 66 63 72 66 67 70 75 71 71 71 59 54 51 50 50 51 53 54 54 54 55 56 57 58 59 60 61 62 62
62 64 63 68 67 67 67 67 67 65 61 68 72 65 63 63 67 69 71 71 72 52 50 49 49 49 50 51 51 52 53 54 55 56 57 58 59 61
60 59 63 64 63 68 68 63 63 62 63 62 66 63 64 66 67 67 71 77 75 64 52 50 50 49 48 48 49 49 50 51 51 53 54 55 57 58
60 64 67 64 64 63 68 68 67 68 64 60 62 68 70 71 70 71 71 72 75 65 53 50 50 49 49 48 48 48 48 48 48 48 48 50 51 53
66 67 70 65 62 63 62 63 64 63 62 60 63 66 68 70 69 67 67 71 71 76 67 62 56 51 49 49 49 48 48 48 48 47 46 45 45 46
66 67 63 59 54 56 62 62 64 62 61 59 59 63 64 65 64 68 65 68 69 70 69 70 71 70 49 43 43 43 43 44 45 46 46 45 43 43
61 62 63 53 54 47 47 48 54 62 61 61 62 61 63 65 66 65 63 61 57 64 61 61 58 37 38 39 39 40 41 42 42 42 43 43 42 41
52 54 57 49 42 46 46 43 44 43 39 53 54 56 55 43 44 50 54 54 53 44 46 47 37 33 34 36 38 38 38 38 38 39 38 38 37 36
38 39 40 39 36 38 43 48 47 36 37 39 35 32 32 33 35 40 41 41 44 37 37 38 34 31 32 32 36 37 37 36 36 35 35 35 34 34
34 34 36 35 34 36 44 45 37 32 33 33 32 32 32 32 32 39 34 35 37 34 30 33 33 31 29 29 32 34 35 35 36 36 35 35 34 34
33 33 33 33 33 34 37 39 31 30 29 29 29 29 30 29 30 29 29 32 32 33 29 30 32 31 27 30 32 33 33 33 34 34 34 33 33 35
32 31 32 33 33 33 33 33 31 31 30 30 30 30 30 29 30 31 30 30 30 28 31 32 32 32 31 29 32 33 34 33 33 33 34 32 31 30
32 32 32 33 33 33 33 32 32 32 32 31 30 30 30 30 31 32 31 31 31 29 31 32 32 33 33 32 32 34 33 33 33 32 33 34 35 33
32 32 33 33 33 32 32 32 33 33 32 32 30 30 31 32 33 33 33 32 32 32 32 33 32 33 33 31 30 30 30 34 36 35 34 34 33 34
33 33 32 32 32 32 32 32 32 32 32 31 30 31 33 33 32 34 33 34 34 34 35 35 34 34 32 33 33 32 34 30 35 34 33 33 35 35
33 33 32 32 31 31 31 31 31 32 31 31 31 31 32 32 32 34 33 34 31 32 32 35 36 34 33 32 31 32 32 32 33 32 31 30 33 34
32 30 29 29 29 29 29 29 30 30 31 32 31 31 31 30 31 32 33 31 30 31 30 32 32 33 34 28 31 28 30 29 30 30 31 28 29 33
29 28 28 28 29 30 30 30 28 29 30 30 30 29 30 30 30 29 30 30 29 30 30 31 28 27 25 23 30 29 25 26 26 26 28 28 27 29
29 28 28 28 29 28 28 27 27 27 28 28 27 27 27 28 27 26 25 24 27 28 28 29 27 23 21 20 20 26 28 25 24 22 24 27 30 32
28 27 27 27 27 27 26 26 25 25 25 25 25 25 25 26 24 25 26 23 23 26 25 25 27 24 28 29 24 25 28 30 26 26 26 24 25 27
26 26 26 25 25 25 25 24 25 23 24 24 23 23 23 25 23 23 23 22 23 24 25 27 29 29 27 25 23 23 27 29 32 32 30 27 24 20
23 24 23 22 23 23 24 22 21 21 21 22 21 22 22 22 23 23 23 23 23 22 23 24 26 28 27 27 24 25 26 26 28 28 30 30 29 28

GFSNE_sfc_temp_102.txt.gz
Temp
59 59 59 59 60 61 61 62 59 54 57 58 58 65 65 65 64 64 64 58 53 51 51 52 55 56 57 57 58 59 60 61 62 62 63 63 64 64
58 58 58 59 60 62 61 60 60 56 54 60 60 61 64 67 64 65 65 58 53 50 50 50 51 53 54 54 55 56 57 58 59 59 60 60 61 62
58 58 59 61 61 62 60 60 59 57 55 58 61 61 59 59 63 62 63 65 64 52 50 50 50 50 50 51 52 53 54 55 56 56 58 58 60 61
57 58 59 62 60 60 60 59 58 60 58 55 57 58 57 59 60 61 64 68 67 60 52 51 51 49 49 49 49 49 50 51 51 52 53 55 57 58
57 57 58 58 58 59 60 59 58 60 56 55 57 58 59 59 61 62 62 63 67 61 55 50 50 50 50 49 48 48 47 47 47 47 48 49 50 52
58 58 59 58 58 59 59 59 60 58 57 54 54 57 60 62 63 62 60 64 64 70 63 58 53 48 45 44 43 43 44 45 45 45 45 44 44 46
59 60 59 58 54 57 60 59 58 57 57 56 56 58 58 58 58 61 59 59 60 59 60 61 55 45 41 41 41 42 42 43 43 43 43 43 42 42
60 60 62 51 50 45 44 44 51 57 57 56 57 56 56 57 53 53 53 52 51 46 49 50 44 37 37 38 39 39 40 40 40 40 40 40 39 38
45 47 48 44 40 45 44 41 38 37 36 48 51 49 43 37 38 44 49 47 46 41 44 43 37 33 34 36 38 38 38 38 38 37 37 36 36 35
37 38 38 37 36 37 42 39 35 34 35 36 34 32 32 32 34 39 40 40 41 33 33 35 33 30 31 33 36 37 37 37 37 37 37 36 36 35
34 34 35 34 34 37 43 36 32 31 33 33 33 33 33 33 33 37 32 34 34 30 30 31 32 29 29 29 32 35 35 36 36 35 35 35 35 36
32 32 33 33 33 35 35 33 29 29 29 29 30 30 31 32 32 31 30 31 29 29 29 29 31 31 27 30 31 32 32 34 35 35 35 34 34 27
30 30 32 34 33 33 33 31 30 30 30 30 30 31 31 31 31 31 29 28 28 26 29 31 31 30 27 27 29 31 30 30 31 31 34 35 35 30
30 31 32 34 33 33 32 33 33 33 32 31 30 29 29 30 28 25 24 25 25 25 30 31 30 30 30 29 27 29 25 24 24 24 24 32 34 35
31 32 33 33 33 32 33 32 32 32 31 29 28 28 29 30 30 31 28 26 23 24 26 25 24 29 29 26 25 23 22 24 24 24 25 26 24 28
31 31 31 31 31 30 30 31 31 30 29 29 28 29 30 29 24 24 23 24 22 22 27 27 28 26 22 23 24 22 23 21 25 25 24 24 25 24
31 31 29 29 28 28 27 27 28 29 28 28 27 25 22 22 21 23 24 23 20 21 24 28 30 28 25 26 21 23 23 23 23 24 25 22 24 25
29 27 26 26 25 25 25 24 23 23 24 24 22 23 21 22 24 26 24 22 19 21 20 24 24 24 25 25 29 21 21 21 22 24 25 21 22 24
26 25 24 24 23 23 23 22 21 21 23 23 22 22 24 24 22 22 22 23 21 22 22 23 21 19 16 12 23 28 18 20 20 17 21 20 19 23
25 23 22 23 23 22 22 21 20 19 20 21 18 18 17 19 18 20 19 13 18 21 21 22 19 18 11 7 8 18 30 15 16 14 16 20 24 29
22 21 21 21 21 20 20 18 16 15 14 12 13 16 13 15 13 15 15 14 14 19 18 18 20 21 22 20 9 12 20 31 26 20 21 15 16 19
20 19 19 19 18 19 15 15 16 12 14 14 13 10 11 13 13 12 11 11 15 14 18 21 24 24 21 21 14 9 18 19 28 31 31 28 16 12
16 16 15 14 15 14 16 13 12 11 12 14 13 12 11 10 13 12 11 15 16 13 15 16 20 20 22 22 16 14 18 15 22 22 23 30 31 30

GFSNE_sfc_temp_108.txt.gz
Temp
60 60 59 59 59 58 59 59 56 50 53 55 56 59 62 62 60 59 60 54 51 50 51 52 54 55 56 57 58 59 60 61 62 62 62 63 63 64
60 60 59 59 58 57 57 58 58 55 52 58 56 59 61 63 60 59 60 54 50 49 49 50 51 53 54 54 55 55 57 58 59 60 60 61 61 62
60 59 59 59 57 56 56 56 56 57 54 56 59 59 58 58 59 59 60 59 60 49 48 48 48 49 50 51 52 52 52 53 54 55 56 57 59 60
58 59 58 58 57 57 57 56 57 58 56 54 57 57 58 58 59 57 59 62 59 55 50 49 49 48 46 46 46 46 46 47 48 49 50 52 53 54
59 58 58 58 57 57 57 57 57 57 56 55 55 57 58 57 57 58 56 56 60 56 51 43 44 43 43 43 43 44 44 44 44 44 44 44 45 46
57 58 58 58 58 57 57 57 56 56 55 55 56 55 55 56 56 55 52 54 57 56 44 43 42 42 42 42 42 42 43 43 42 42 41 40 40 42
57 57 57 56 51 53 57 56 54 54 53 53 52 50 50 51 51 53 53 55 50 50 48 44 41 40 39 40 41 41 41 41 41 41 40 39 39 40
55 55 56 49 44 42 41 39 47 54 53 52 53 49 50 52 49 52 53 52 49 41 47 37 39 36 37 38 39 39 39 40 39 39 39 38 37 37
44 48 45 42 43 41 37 36 36 35 34 49 51 46 44 39 40 43 45 46 43 35 39 34 33 32 34 37 38 38 38 38 38 37 37 37 37 36
36 38 39 38 38 40 38 35 34 34 34 35 35 32 33 34 36 39 40 38 34 33 33 32 32 29 31 33 37 37 37 37 37 37 36 36 35 35
34 35 36 36 37 39 37 33 31 31 34 35 34 34 34 34 35 37 34 34 32 30 30 32 30 28 29 30 32 36 36 36 36 36 37 37 35 33
32 33 34 34 35 35 34 32 29 29 30 31 31 31 31 31 31 30 32 33 31 28 29 31 30 29 26 30 30 31 28 34 35 36 36 36 36 22
31 31 32 33 34 34 33 32 30 31 30 30 30 30 29 28 28 28 26 27 26 26 29 30 29 30 28 26 28 23 21 23 21 23 31 34 35 31
29 30 31 33 33 33 32 32 32 30 30 28 28 27 28 27 24 25 25 25 26 25 25 29 26 25 26 25 23 23 20 19 20 20 21 28 32 32
30 30 30 30 30 30 31 31 30 29 28 27 25 25 23 21 25 26 27 26 26 27 27 25 25 25 24 21 20 18 20 23 23 22 22 23 23 25
29 28 27 27 26 26 27 27 27 26 26 24 23 23 23 25 23 23 23 24 23 23 28 27 26 25 20 21 22 19 21 18 22 23 24 23 25 23
28 27 25 24 23 23 23 24 24 24 23 23 23 23 23 23 23 24 24 23 21 20 21 24 27 26 26 25 21 21 21 21 22 21 23 21 23 23
24 22 21 21 20 21 21 21 22 22 22 23 22 23 22 22 22 23 23 21 20 20 20 21 21 22 25 25 27 21 21 20 21 23 24 18 18 21
21 20 19 19 19 20 20 20 19 20 21 20 20 20 21 22 21 20 20 21 20 21 21 21 21 18 14 12 21 28 17 20 19 17 19 18 15 21
19 18 17 18 19 18 18 17 17 17 17 17 16 15 16 18 17 17 17 13 17 19 19 20 18 18 12 8 8 16 27 15 14 13 13 16 20 26
15 15 15 16 15 15 13 12 12 11 10 10 11 11 6 12 12 13 13 11 12 16 14 15 17 20 20 17 8 10 17 28 25 17 17 10 13 16
12 12 12 12 11 11 7 7 8 8 8 8 5 4 5 9 8 7 7 9 11 10 13 16 19 19 18 18 12 4 13 15 23 26 27 23 15 10
8 9 8 8 9 8 8 4 2 0 3 2 3 5 1 4 8 6 6 10 10 10 11 11 14 15 15 17 12 9 12 10 16 16 17 26 27 28

GFSNE_sfc_temp_111.txt.gz
Temp
60 61 60 59 59 59 59 60 57 51 52 55 55 59 60 60 59 59 59 55 51 50 51 52 54 56 56 57 58 59 60 61 62 62 62 63 64 64
60 59 59 59 59 58 58 57 57 55 52 59 59 57 60 61 59 60 60 56 50 49 49 49 51 53 53 54 55 55 57 57 58 59 59 60 61 61
59 59 59 59 58 58 57 57 56 55 55 55 59 58 57 58 58 58 58 57 58 49 48 48 48 48 48 49 48 50 51 52 53 54 55 56 57 58
59 59 58 58 57 58 57 55 56 55 54 53 55 56 57 57 58 57 58 60 60 53 48 48 48 47 46 44 44 45 46 46 47 48 49 50 51 52
58 59 58 58 57 56 56 55 55 56 55 54 55 56 57 57 57 57 57 57 58 45 42 42 43 43 43 43 44 44 44 44 42 42 42 43 45 46
59 59 59 58 58 57 57 56 56 55 55 55 55 54 55 56 56 55 54 55 54 48 43 42 42 42 42 42 42 42 43 42 42 41 40 40 40 42
56 57 58 56 51 54 57 57 56 55 55 54 54 52 52 51 53 54 54 53 48 48 44 42 41 40 40 41 41 41 41 41 41 41 40 39 39 40
56 56 56 49 48 45 44 46 53 55 54 54 54 52 52 53 52 53 53 51 47 41 41 36 39 36 37 38 39 40 40 40 40 39 39 39 38 37
47 52 46 44 44 42 37 37 36 35 35 52 53 52 49 46 46 46 47 48 44 37 41 32 34 32 35 37 38 38 38 38 38 38 37 37 37 36
37 39 40 41 41 40 38 35 34 34 34 36 35 33 33 35 39 41 43 36 34 33 35 31 31 30 32 33 35 37 37 37 37 37 37 36 35 35
34 35 36 38 38 39 36 32 31 31 34 35 34 34 34 34 36 37 34 35 32 31 31 33 30 28 30 30 32 35 36 37 37 37 37 37 35 33
32 33 34 35 35 35 34 32 29 29 30 30 30 30 31 31 30 30 33 33 31 30 30 32 30 28 26 30 30 30 29 33 35 34 35 36 35 24
31 31 32 33 33 34 33 32 31 32 31 30 29 28 28 28 27 28 28 30 29 27 28 31 30 29 28 26 29 26 22 23 24 26 30 32 34 30
29 30 32 33 33 32 31 31 31 31 30 29 28 26 25 25 26 26 26 26 26 24 25 27 27 29 26 24 21 24 23 23 24 22 21 27 30 31
28 29 30 30 30 29 30 30 29 28 27 25 24 24 24 26 28 27 27 27 26 26 27 26 24 23 25 24 21 21 22 23 24 23 23 23 23 25
27 26 26 26 25 25 26 26 26 26 25 23 23 23 25 24 24 24 23 23 22 23 27 28 28 27 23 23 23 20 22 20 23 24 25 24 24 24
25 24 23 23 23 23 23 23 23 24 23 23 23 23 23 23 23 24 24 23 20 21 22 25 29 28 27 26 22 23 23 23 23 23 23 21 23 24
23 20 20 20 20 20 20 20 21 21 22 22 22 23 22 22 22 23 23 21 19 20 20 22 22 24 25 25 28 22 22 21 22 23 23 17 18 22
18 18 18 18 19 19 19 18 17 19 20 20 20 20 21 21 21 20 21 21 20 20 20 21 20 19 16 13 21 29 19 20 19 16 19 18 16 21
17 15 14 15 16 16 16 15 15 15 15 16 15 15 17 18 17 17 17 16 18 19 18 19 18 17 14 11 11 16 27 14 14 13 14 16 20 26
14 13 13 13 12 12 9 9 8 8 9 10 10 11 10 14 13 13 13 12 13 16 14 15 17 19 20 17 10 12 17 26 24 17 16 9 11 14
9 10 10 10 9 8 6 6 6 6 6 8 6 6 6 11 8 9 10 11 12 12 13 15 18 18 17 16 11 4 12 13 21 25 25 23 16 11
3 6 5 5 6 4 5 2 0 -2 2 3 3 4 -1 4 6 7 8 11 11 10 10 10 13 14 14 15 11 8 9 7 14 14 15 24 25 26

GFSNE_sfc_temp_114.txt.gz
Temp
61 61 61 62 61 60 60 60 57 52 52 54 54 61 61 61 59 60 59 54 51 50 51 52 54 56 56 57 58 59 60 61 61 62 62 62 63 63
60 60 60 61 59 59 59 59 58 57 53 56 55 56 60 61 59 60 60 55 50 49 49 49 51 53 53 54 54 55 56 56 57 58 59 59 60 60
59 59 59 61 58 58 58 58 57 56 54 54 57 57 56 58 59 58 59 59 59 49 48 47 47 47 48 49 49 50 51 52 53 54 55 56 57 58
59 59 59 58 58 58 57 56 57 56 54 53 54 54 56 58 59 57 58 60 59 50 47 46 46 46 46 45 45 46 46 47 48 48 49 49 50 51
59 59 58 58 57 57 57 57 57 56 56 54 53 55 56 57 56 57 57 55 49 45 43 43 43 44 44 44 44 44 44 43 42 42 43 44 46 47
59 59 59 58 58 57 57 57 56 55 55 54 53 53 54 55 55 54 53 53 47 47 43 42 42 43 42 42 42 43 43 42 42 41 40 40 41 43
57 58 58 57 52 55 57 57 56 56 55 54 53 54 53 51 53 55 55 52 47 44 42 42 41 41 41 41 42 42 41 41 41 41 40 39 39 40
56 56 57 50 48 45 46 47 53 55 55 54 54 53 54 55 54 54 54 49 45 45 40 36 39 37 38 39 40 40 40 40 40 40 39 38 38 37
48 52 49 47 46 43 37 37 36 36 37 55 55 55 54 54 53 50 51 51 46 38 38 32 35 33 36 37 38 38 38 38 37 37 38 37 37 36
37 39 42 42 42 41 39 36 34 34 35 36 37 35 35 38 45 46 46 36 35 33 37 30 32 31 33 35 37 37 37 36 37 37 36 36 35 35
34 37 38 38 38 40 37 33 32 31 33 34 34 34 34 35 37 41 37 38 32 31 33 32 30 29 30 31 33 35 36 36 35 36 37 36 35 33
33 33 34 34 35 35 35 33 30 29 30 30 30 30 31 31 30 32 35 35 32 30 30 30 29 29 26 29 29 30 31 34 34 34 34 35 34 32
31 31 32 33 34 34 33 32 31 31 30 28 27 27 28 27 27 28 28 31 32 28 29 32 30 29 28 27 28 26 28 28 28 28 30 32 33 33
27 29 30 32 32 32 31 31 31 31 30 27 26 25 24 25 25 26 26 26 26 26 27 31 30 31 28 26 24 25 26 26 27 27 27 29 30 30
27 29 29 29 28 28 29 28 28 27 27 25 23 23 24 26 26 27 27 27 26 27 28 29 30 29 30 26 23 23 25 26 27 27 27 27 27 28
26 26 26 26 25 25 25 26 25 25 24 23 23 24 26 25 24 25 24 25 24 24 28 29 29 29 25 25 25 22 25 23 27 27 28 28 29 29
24 24 23 22 22 22 22 22 23 24 23 23 23 23 23 23 23 24 23 23 21 22 23 26 28 28 28 27 23 24 24 25 26 26 27 25 27 28
22 20 19 19 19 19 19 19 20 21 22 23 23 23 22 22 22 23 23 22 20 21 21 23 24 26 26 27 29 24 24 24 25 26 26 22 23 26
17 16 15 16 17 18 17 17 16 18 20 20 20 21 22 22 22 21 22 22 20 21 21 22 22 22 19 17 23 28 22 22 22 22 23 23 21 24
15 13 13 14 14 14 14 14 14 15 15 17 16 17 18 19 18 18 18 18 19 20 19 20 19 18 17 16 18 21 27 21 21 20 20 22 23 25
12 11 11 11 10 10 8 9 8 8 9 10 11 12 13 16 15 15 15 14 15 17 15 15 17 20 21 19 16 17 20 25 24 21 20 18 18 20
8 9 9 8 7 7 4 4 6 6 7 8 8 8 9 12 12 13 13 13 13 13 14 16 19 20 20 18 15 12 17 17 21 24 24 24 19 15
3 5 4 3 5 4 4 1 -0 -2 2 3 4 6 3 8 11 11 12 13 13 12 13 13 15 16 16 16 13 13 13 13 16 16 18 22 23 24

GFSNE_sfc_temp_117.txt.gz
Temp
63 63 63 64 63 63 63 60 57 52 53 59 57 60 61 62 64 67 67 56 51 51 51 53 55 56 56 57 58 59 61 61 62 62 62 62 63 64
62 62 62 63 63 62 61 60 59 57 54 60 58 59 61 62 63 66 67 57 50 49 49 50 51 53 54 54 55 56 57 58 59 59 60 60 61 61
61 61 62 64 62 62 61 61 59 58 55 56 59 58 58 59 60 63 66 65 66 48 48 48 48 48 49 50 51 52 53 53 55 55 56 57 58 59
60 60 60 61 62 62 60 58 58 58 57 53 55 55 56 58 59 59 63 65 66 49 47 47 47 46 46 46 47 47 48 48 49 51 51 51 51 52
60 60 61 63 60 60 58 57 57 57 57 55 54 56 56 57 57 60 64 64 55 46 43 43 44 44 44 44 45 44 44 44 44 44 45 46 48 50
62 61 64 61 60 58 57 59 57 56 56 55 55 55 56 56 58 57 56 54 52 51 44 44 44 43 43 43 43 43 43 42 42 42 41 41 42 44
60 61 61 59 52 55 58 58 57 56 55 54 54 53 54 53 54 58 56 52 48 46 42 42 42 42 42 42 43 42 42 42 41 41 41 40 39 40
57 59 60 51 51 45 45 47 55 56 56 55 55 54 54 55 55 54 54 48 46 44 41 38 41 39 40 41 40 40 41 41 41 40 39 39 38 38
50 52 54 50 49 47 38 38 37 37 38 57 55 55 55 56 55 53 54 53 51 43 39 33 36 34 37 38 39 39 39 39 39 39 38 37 37 36
36 38 41 43 42 43 41 37 35 35 36 37 39 38 37 41 52 55 55 46 36 35 38 32 33 32 34 36 38 38 37 37 37 37 36 36 36 35
33 34 36 36 36 40 38 34 32 32 34 35 34 35 35 35 35 42 39 40 33 33 34 32 31 30 32 32 34 35 35 34 35 36 36 36 35 34
32 32 33 33 34 35 36 35 31 31 31 31 30 30 31 31 31 32 36 39 33 32 32 30 30 30 27 29 30 31 30 31 32 33 35 36 35 37
29 30 31 33 33 33 33 32 30 30 29 29 28 28 28 27 26 28 29 33 33 29 29 32 31 30 29 26 26 26 28 28 30 32 32 33 34 35
27 28 29 31 31 30 30 31 31 30 28 27 25 25 25 24 26 26 27 27 28 27 29 32 32 30 28 26 23 25 26 30 32 33 34 32 31 31
29 29 29 29 29 28 29 28 28 27 26 24 23 23 24 25 26 27 27 28 27 28 29 31 32 32 31 27 24 25 26 30 33 34 36 36 36 36
30 29 28 27 26 26 27 28 28 27 26 25 24 24 26 25 24 26 25 26 25 25 28 29 30 29 27 28 28 26 30 27 32 32 33 33 36 36
29 29 28 27 25 24 25 25 26 27 26 26 25 25 26 26 25 27 28 28 26 25 25 27 30 31 31 31 27 30 29 30 32 31 32 32 33 34
28 26 24 24 24 23 22 22 22 22 24 25 26 26 26 25 25 26 28 27 25 26 26 28 29 29 29 29 32 29 30 30 32 31 32 29 31 34
24 23 23 23 23 24 23 22 20 20 22 23 23 24 25 26 27 26 27 27 26 27 27 28 29 29 26 22 26 30 28 29 29 29 29 29 27 30
23 21 21 21 22 22 21 21 20 21 21 22 22 22 23 24 24 24 25 25 25 26 25 27 26 26 27 24 23 24 27 26 26 26 26 29 30 28
20 19 20 20 19 19 19 18 18 17 18 19 19 20 22 23 21 21 21 20 23 25 23 23 24 23 27 27 23 23 25 24 25 24 26 26 26 29
18 17 17 17 17 17 17 17 18 18 18 19 19 20 21 22 21 20 21 20 20 21 22 24 25 27 26 25 21 20 23 24 26 24 24 23 23 22
15 15 14 14 15 14 15 14 14 14 15 16 18 18 19 19 21 21 20 20 20 20 21 21 23 25 23 22 21 21 18 20 23 23 26 23 22 23

GFSNE_sfc_temp_120.txt.gz
Temp
70 69 67 67 66 68 70 70 61 56 55 63 61 64 64 67 63 64 65 57 52 51 52 53 55 57 57 58 59 60 61 62 62 62 62 63 64 64
66 66 66 65 65 66 67 66 64 59 55 61 61 62 62 64 62 63 66 59 50 49 50 51 52 54 55 55 55 56 57 59 59 60 60 61 62 62
65 65 65 65 63 66 65 67 63 60 56 59 61 62 59 59 60 61 63 67 70 48 48 49 49 50 51 51 52 53 54 55 56 57 58 59 60 60
64 63 64 64 62 65 64 63 62 62 59 56 57 57 58 60 60 59 61 67 71 54 48 48 48 47 47 48 48 49 49 50 51 52 53 55 56 57
63 63 64 62 61 62 63 62 67 65 60 57 55 57 58 58 58 58 58 60 56 46 45 46 46 46 46 45 46 46 46 46 46 47 47 48 49 51
62 63 63 61 62 64 63 66 64 59 57 56 56 55 57 57 57 56 55 53 52 53 46 46 45 46 44 44 43 44 44 44 44 43 43 42 43 46
60 60 61 59 54 59 65 64 61 57 56 55 54 55 54 53 53 56 56 52 50 48 45 46 46 46 44 43 43 43 43 42 42 42 42 41 41 42
57 59 60 52 53 45 45 46 54 57 56 55 54 54 55 55 56 55 54 48 45 47 46 43 45 43 43 44 41 41 41 41 41 41 41 40 39 39
40 42 45 50 47 55 40 38 37 37 38 57 55 57 55 57 56 55 55 53 53 45 41 34 38 36 38 39 40 40 40 40 40 39 38 37 37 36
35 36 37 38 38 43 45 40 37 35 36 37 39 38 39 43 55 57 56 48 38 40 40 33 34 32 34 36 38 38 37 38 38 37 36 36 35 35
34 35 35 35 35 38 39 34 32 32 34 35 34 34 34 34 36 47 42 43 35 35 34 33 32 31 32 32 34 35 35 34 34 35 35 35 35 35
32 32 33 33 34 34 35 35 31 30 32 32 31 30 30 30 31 31 36 48 34 33 33 32 31 30 26 30 31 31 31 33 34 34 34 33 33 34
29 29 30 32 33 33 32 30 29 30 29 29 29 28 29 28 28 28 29 33 34 32 32 33 32 30 28 25 26 27 28 28 29 30 33 34 34 35
30 30 30 31 31 30 30 30 30 30 28 27 26 25 25 26 27 28 28 28 29 30 32 32 32 30 27 24 22 25 26 28 29 29 30 29 29 31
31 30 31 31 31 30 30 29 29 28 26 25 23 24 25 26 27 28 29 29 29 29 31 32 32 30 31 25 23 24 26 28 31 31 33 36 36 37
32 32 32 31 31 31 31 31 30 30 28 27 27 28 29 28 27 28 27 27 26 25 29 30 31 31 28 28 28 27 28 26 29 31 32 32 33 35
32 32 32 31 30 31 30 30 30 30 29 29 29 29 28 28 28 30 29 29 27 26 25 28 29 30 31 29 26 27 27 28 30 31 33 32 35 37
32 30 28 29 28 28 28 29 30 29 30 30 29 28 27 27 27 28 28 28 27 27 26 28 28 27 28 28 31 31 32 32 33 33 33 31 33 35
30 29 28 28 29 29 30 29 28 28 29 30 29 29 28 26 26 27 27 27 26 26 27 28 29 30 26 22 28 28 31 32 32 33 35 34 32 35
29 28 27 27 28 29 29 29 29 29 29 30 29 29 29 29 28 28 28 26 26 27 27 29 29 31 30 26 25 24 27 29 31 30 32 34 35 30
26 26 26 26 26 27 26 26 26 25 26 27 27 28 27 28 27 26 25 25 27 28 25 25 25 28 31 31 25 25 26 26 27 28 29 30 32 33
23 24 24 24 23 24 24 24 25 25 26 26 26 26 27 28 26 26 26 25 26 26 25 26 29 30 29 29 26 24 25 27 26 25 24 23 25 26
20 21 21 20 21 22 23 22 22 22 23 24 25 25 25 26 26 26 25 26 26 25 26 26 28 29 27 26 26 25 21 24 28 27 27 24 22 22

GFSNE_sfc_temp_126.txt.gz
Temp
65 65 65 66 66 65 63 62 59 54 57 61 60 66 65 65 63 62 62 55 52 51 52 54 56 58 58 59 59 61 62 62 63 63 63 63 64 64
66 65 65 65 66 63 63 63 61 60 58 61 61 65 64 63 61 62 62 57 51 49 49 51 53 55 55 56 56 57 58 59 60 61 61 61 62 63
65 64 64 63 60 61 63 62 62 61 59 62 62 62 62 60 61 60 61 63 62 49 49 49 49 50 52 52 53 54 55 56 57 58 59 60 61 62
64 63 61 62 61 63 64 63 63 64 61 59 62 59 59 60 61 60 61 63 63 55 49 49 49 48 49 49 50 50 52 52 53 54 55 57 59 60
60 62 62 62 61 61 62 62 62 62 62 60 60 60 59 59 58 61 61 61 61 56 48 48 48 48 47 48 48 49 49 49 49 49 50 51 52 54
49 50 51 53 58 62 62 63 62 61 61 60 59 60 58 58 58 58 56 58 51 51 47 48 49 47 47 47 47 47 47 48 48 47 47 46 46 48
43 43 45 43 41 41 46 56 61 60 60 59 58 56 55 54 55 56 56 56 49 47 45 45 46 47 47 45 47 46 45 46 46 47 46 45 44 45
36 38 42 40 39 39 40 39 39 50 57 56 56 55 55 56 56 55 55 48 47 46 45 42 44 42 43 44 43 43 43 44 44 45 45 44 43 43
33 34 36 37 36 38 40 38 36 35 32 41 50 53 54 55 56 54 54 51 52 46 43 36 37 35 38 40 41 42 42 42 43 43 44 43 42 40
32 33 33 33 34 36 39 36 34 33 33 34 32 32 32 33 36 48 55 52 42 43 42 34 34 32 35 38 40 40 40 40 40 39 39 38 37 37
33 33 32 32 33 34 35 34 33 32 34 34 34 34 33 34 33 39 42 43 35 36 35 34 32 31 32 32 35 39 39 38 38 38 38 37 36 35
32 32 33 32 33 33 31 30 28 28 29 31 32 32 32 32 32 31 32 36 35 33 34 32 31 31 27 30 31 32 33 35 36 36 35 35 34 32
31 31 32 34 34 33 32 30 29 29 28 28 28 28 29 30 30 31 31 31 32 32 32 33 32 30 29 25 26 28 32 32 32 33 34 33 33 32
30 31 32 34 34 33 32 32 32 31 30 28 28 27 28 28 29 30 30 30 31 32 33 34 32 29 26 23 22 25 27 28 29 29 29 32 32 32
31 33 34 34 34 31 33 32 31 30 29 28 27 27 29 30 31 31 30 30 29 29 31 32 31 29 28 23 22 23 24 26 28 27 27 28 28 28
30 32 32 31 32 32 30 30 30 30 29 28 27 29 30 29 28 30 29 29 27 26 29 30 29 28 25 25 25 24 25 24 27 27 27 28 28 29
31 30 29 29 28 28 29 27 27 28 28 29 28 27 27 28 27 29 29 27 25 25 25 27 28 29 28 27 24 25 25 26 28 28 28 27 28 30
29 26 25 25 25 25 25 26 25 25 26 26 26 27 27 26 26 27 28 27 25 26 26 27 27 26 26 26 29 26 26 26 27 28 28 26 27 29
23 22 21 22 23 23 23 23 22 24 26 27 25 26 27 28 27 26 26 25 24 25 25 27 28 26 22 19 24 28 25 26 26 25 27 27 26 27
22 21 19 20 21 22 21 22 24 22 23 26 24 22 25 23 23 24 24 23 24 25 24 25 24 26 23 20 19 20 28 25 26 24 25 27 27 29
19 20 18 18 19 19 20 19 22 21 22 23 23 24 23 20 18 20 19 18 20 24 23 23 25 26 26 25 18 19 22 28 26 24 25 23 24 25
16 17 18 16 15 16 17 17 17 18 17 19 20 17 22 22 17 16 17 15 19 18 21 23 27 27 26 24 18 14 20 21 26 27 27 24 18 18
14 15 15 14 13 14 14 14 15 14 14 14 16 19 19 15 21 20 17 18 19 19 20 21 23 25 26 25 22 18 15 14 20 20 20 25 25 24

GFSNE_sfc_temp_129.txt.gz
Temp
64 65 64 65 64 62 61 59 57 55 55 57 58 62 64 64 62 62 62 55 52 51 52 53 56 58 58 59 60 61 62 62 63 63 63 64 65 65
64 64 64 63 61 63 62 61 60 58 55 58 59 59 64 63 62 63 62 57 51 50 49 50 52 54 56 56 57 58 59 60 61 61 61 62 63 63
64 63 63 63 63 62 59 59 59 58 56 62 61 61 60 61 61 61 61 60 60 49 48 49 49 50 52 53 53 55 56 57 58 59 60 61 62 62
58 61 61 62 61 60 58 58 60 61 61 59 59 59 59 60 62 61 60 61 61 55 49 48 48 48 48 49 50 50 52 52 53 54 55 57 59 61
47 50 48 47 48 50 57 60 61 61 60 59 60 59 61 59 58 59 60 60 60 57 49 48 47 48 47 48 48 49 50 50 50 50 51 51 53 55
43 44 43 41 41 42 46 48 55 60 61 60 60 60 59 57 60 59 57 59 58 57 51 50 49 48 47 47 47 48 49 49 49 49 48 47 47 49
38 40 40 39 38 39 42 41 42 48 57 59 58 58 57 55 57 57 57 57 55 52 51 48 48 51 51 46 49 48 47 47 48 48 48 46 46 46
34 36 38 37 37 37 39 36 35 38 43 45 53 57 59 57 55 55 55 53 49 48 48 46 45 44 44 47 47 46 45 46 46 47 47 46 45 44
32 32 34 35 35 37 39 37 35 35 32 37 38 35 36 35 37 52 55 54 54 48 47 42 38 36 38 41 41 42 43 44 45 45 44 44 44 43
32 33 32 32 33 34 35 36 34 33 33 34 33 32 32 33 34 37 39 41 44 43 43 39 34 32 34 37 41 41 41 41 42 42 42 42 41 41
33 33 33 32 34 34 31 31 30 30 33 34 34 34 34 33 33 36 36 37 37 37 35 37 32 31 32 32 35 39 39 39 39 39 39 38 37 37
32 32 34 33 34 33 31 30 27 27 28 29 30 31 32 31 32 30 30 32 34 34 34 34 32 32 29 30 31 32 34 37 37 38 37 37 36 34
30 30 32 34 34 34 33 31 30 28 25 26 28 30 31 31 31 30 30 28 29 33 33 33 32 31 30 25 27 28 32 32 33 33 35 35 35 34
28 31 32 34 34 33 30 32 31 25 24 25 26 26 27 28 30 31 30 30 29 28 31 32 32 31 27 23 23 26 28 29 31 30 31 33 33 33
30 32 33 33 33 30 31 30 27 28 26 26 26 26 27 28 29 30 29 30 29 29 29 30 31 30 29 25 23 24 24 26 28 28 28 28 29 30
29 29 27 29 23 23 22 25 24 24 25 25 24 20 22 24 25 28 25 26 26 26 28 29 29 28 25 26 26 24 26 24 27 27 28 27 28 30
28 22 21 21 20 21 21 22 22 23 22 21 22 20 18 19 21 22 24 22 24 25 25 27 28 28 28 27 24 25 25 25 26 26 27 26 28 29
19 15 14 15 19 16 17 16 16 18 23 23 19 22 23 22 22 23 23 21 22 24 24 27 27 26 26 26 30 25 26 26 27 28 28 26 26 29
18 14 7 10 14 18 18 19 20 19 22 21 19 21 22 23 22 23 22 23 22 23 24 25 26 25 21 18 24 29 25 26 26 26 27 27 26 27
16 16 14 13 15 16 17 17 19 18 19 21 20 20 20 19 18 20 21 17 19 22 23 23 24 25 22 19 16 20 28 25 25 24 25 25 27 29
14 14 15 13 12 13 12 13 15 14 14 14 17 17 19 18 12 15 16 12 16 21 20 21 23 25 25 24 17 17 21 27 27 24 25 23 22 23
5 11 13 13 9 10 8 10 12 11 10 11 11 12 17 17 16 13 12 11 16 15 18 20 25 26 25 23 17 16 19 21 26 27 27 25 20 19
0 4 6 8 7 9 10 5 6 4 5 7 9 10 13 15 17 16 15 16 16 17 19 19 22 23 23 22 18 15 14 15 20 20 20 26 26 26

GFSNE_sfc_temp_132.txt.gz
Temp
65 65 65 65 63 63 61 59 58 54 54 56 57 60 62 62 61 62 61 57 51 51 51 53 55 57 58 59 60 61 62 63 63 63 63 64 64 65
64 64 64 63 63 63 63 61 61 59 55 58 58 60 60 62 61 61 62 56 51 50 49 50 52 54 55 56 57 58 59 60 61 61 62 62 63 63
63 63 63 63 62 62 61 61 60 57 54 55 58 60 60 61 62 61 62 61 62 49 49 49 49 50 51 52 53 54 56 57 58 59 60 61 62 62
51 51 49 55 59 57 60 61 60 58 56 56 58 59 59 61 62 61 61 62 62 54 49 48 48 47 48 49 49 51 52 53 54 55 56 58 59 61
45 44 44 45 44 45 49 51 55 58 59 57 57 58 59 57 58 60 60 61 61 56 49 47 47 47 47 47 48 49 50 51 50 51 51 52 54 56
41 39 38 39 39 40 45 45 47 49 53 58 59 59 58 58 60 60 57 59 59 59 54 52 50 48 47 47 46 47 48 49 50 50 49 48 48 51
36 38 36 38 38 39 40 39 41 44 47 50 54 57 58 57 57 60 58 60 58 60 57 55 53 53 54 46 48 46 46 47 48 49 49 48 47 47
32 34 35 35 35 37 37 36 35 35 38 41 44 43 44 39 40 42 55 56 52 51 52 54 48 51 50 47 45 44 44 45 46 47 48 48 47 46
31 32 33 34 34 35 37 35 34 34 31 35 35 34 35 34 34 37 43 44 52 49 50 51 41 44 39 41 42 42 41 43 44 45 46 46 45 44
33 32 32 32 33 32 32 31 30 31 32 33 32 32 32 33 33 35 36 38 41 45 44 44 35 35 34 37 41 41 41 41 41 43 44 44 43 43
32 33 33 32 34 34 32 30 28 27 32 34 35 34 34 34 33 33 31 33 36 36 35 35 33 32 32 33 34 39 39 39 40 41 42 42 42 40
31 32 34 32 33 33 31 29 27 26 23 24 25 28 31 33 32 30 29 29 31 33 32 32 32 32 32 30 31 33 34 37 38 39 39 40 39 35
29 29 31 34 33 33 31 29 28 23 21 21 22 26 25 29 30 30 29 27 26 29 31 31 32 32 30 27 27 29 32 32 33 33 35 36 37 36
27 28 30 32 31 31 29 30 29 25 23 27 26 26 26 27 27 26 22 22 26 27 28 29 31 32 28 25 26 27 28 29 30 30 32 34 34 33
28 27 29 28 27 25 28 28 22 23 26 25 24 21 17 21 20 27 20 20 23 24 28 26 29 30 29 27 24 24 26 26 29 28 29 29 29 30
22 20 19 23 18 18 20 21 20 19 14 15 18 15 17 17 17 17 15 18 16 19 24 27 28 28 26 26 26 25 26 24 27 27 27 28 29 29
16 16 15 15 16 16 17 17 18 19 19 19 14 17 15 16 19 17 17 16 18 21 20 22 24 27 27 27 24 25 25 25 26 27 27 26 28 29
16 12 10 10 12 14 15 15 18 18 19 21 19 20 19 19 20 21 20 16 15 19 18 19 20 21 24 26 29 25 26 26 27 27 28 26 26 28
13 12 8 8 11 13 13 14 14 16 18 17 18 18 20 20 20 20 21 20 20 20 20 21 21 19 17 14 22 29 25 26 27 26 27 27 25 26
12 11 11 10 11 11 11 11 13 12 12 14 14 14 16 18 16 17 18 13 18 20 20 22 21 21 17 11 10 18 29 25 25 24 24 26 27 29
9 9 8 9 8 9 4 5 6 6 6 7 10 10 10 15 15 14 13 10 12 18 18 20 22 23 24 22 14 16 21 28 27 24 25 23 23 24
0 5 6 6 2 5 -0 -5 0 1 2 3 5 7 8 12 14 13 11 9 14 14 16 19 24 25 23 21 16 15 18 20 26 27 27 26 22 19
-2 2 0 -2 -0 -1 3 -5 -6 -16 -3 -1 1 4 5 8 13 13 11 12 14 14 15 16 20 21 20 20 17 16 15 17 21 20 20 27 27 28